Wetterdaten: Mittwoch, 13.11.2013
Datum Zeit Temp. Aussen +5cm Feuchte Auss Luftdruck Regen Sonnenschein Regendauer UV Solar Windben
13.11.2013 00:00 7,9 C 6,7 C 98 % 1028,1 hPa 0,0 l/m 0 min 0 min 0,0 UV-I 0 W/m 0,0 km/h (0 Bft)
13.11.2013 00:02 7,9 C 6,7 C 98 % 1028,1 hPa 0,0 l/m 0 min 0 min 0,0 UV-I 0 W/m 0,0 km/h (0 Bft)
13.11.2013 00:06 7,9 C 6,7 C 98 % 1028,1 hPa 0,0 l/m 0 min 0 min 0,0 UV-I 0 W/m 0,0 km/h (0 Bft)
13.11.2013 00:08 7,9 C 6,7 C 98 % 1028,2 hPa 0,0 l/m 0 min 0 min 0,0 UV-I 0 W/m 0,0 km/h (0 Bft)
13.11.2013 00:10 7,9 C 6,7 C 98 % 1028,2 hPa 0,0 l/m 0 min 0 min 0,0 UV-I 0 W/m 0,0 km/h (0 Bft)
13.11.2013 00:12 7,9 C 6,7 C 98 % 1028,3 hPa 0,0 l/m 0 min 0 min 0,0 UV-I 0 W/m 0,0 km/h (0 Bft)
13.11.2013 00:14 7,9 C 6,7 C 98 % 1028,2 hPa 0,0 l/m 0 min 0 min 0,0 UV-I 0 W/m 0,0 km/h (0 Bft)
13.11.2013 00:16 7,9 C 6,7 C 98 % 1028,2 hPa 0,0 l/m 0 min 0 min 0,0 UV-I 0 W/m 0,0 km/h (0 Bft)
13.11.2013 00:18 7,9 C 6,7 C 98 % 1028,3 hPa 0,0 l/m 0 min 0 min 0,0 UV-I 0 W/m 0,0 km/h (0 Bft)
13.11.2013 00:20 7,9 C 6,7 C 98 % 1028,3 hPa 0,0 l/m 0 min 0 min 0,0 UV-I 0 W/m 0,0 km/h (0 Bft)
13.11.2013 00:22 7,9 C 6,7 C 98 % 1028,3 hPa 0,0 l/m 0 min 0 min 0,0 UV-I 0 W/m 0,0 km/h (0 Bft)
13.11.2013 00:24 7,9 C 6,7 C 98 % 1028,2 hPa 0,0 l/m 0 min 0 min 0,0 UV-I 0 W/m 0,0 km/h (0 Bft)
13.11.2013 00:26 7,9 C 6,7 C 98 % 1028,2 hPa 0,0 l/m 0 min 0 min 0,0 UV-I 0 W/m 0,0 km/h (0 Bft)
13.11.2013 00:28 7,9 C 6,7 C 98 % 1028,4 hPa 0,0 l/m 0 min 0 min 0,0 UV-I 0 W/m 0,0 km/h (0 Bft)
13.11.2013 00:30 7,9 C 6,7 C 98 % 1028,4 hPa 0,0 l/m 0 min 0 min 0,0 UV-I 0 W/m 0,0 km/h (0 Bft)
13.11.2013 00:32 7,9 C 6,7 C 98 % 1028,3 hPa 0,0 l/m 0 min 0 min 0,0 UV-I 0 W/m 0,0 km/h (0 Bft)
13.11.2013 00:34 7,8 C 6,7 C 98 % 1028,5 hPa 0,0 l/m 0 min 0 min 0,0 UV-I 0 W/m 0,0 km/h (0 Bft)
13.11.2013 00:36 7,9 C 6,7 C 98 % 1028,5 hPa 0,0 l/m 0 min 0 min 0,0 UV-I 0 W/m 0,0 km/h (0 Bft)
13.11.2013 00:38 7,8 C 6,1 C 98 % 1028,5 hPa 0,0 l/m 0 min 0 min 0,0 UV-I 0 W/m 0,0 km/h (0 Bft)
13.11.2013 00:40 7,8 C 6,1 C 98 % 1028,5 hPa 0,0 l/m 0 min 0 min 0,0 UV-I 0 W/m 5,1 km/h (1 Bft)
13.11.2013 00:42 7,8 C 6,1 C 98 % 1028,4 hPa 0,0 l/m 0 min 0 min 0,0 UV-I 0 W/m 0,0 km/h (0 Bft)
13.11.2013 00:44 7,8 C 6,1 C 98 % 1028,5 hPa 0,0 l/m 0 min 0 min 0,0 UV-I 0 W/m 0,0 km/h (0 Bft)
13.11.2013 00:46 7,8 C 6,1 C 98 % 1028,5 hPa 0,0 l/m 0 min 0 min 0,0 UV-I 0 W/m 0,0 km/h (0 Bft)
13.11.2013 00:48 7,8 C 6,1 C 98 % 1028,4 hPa 0,0 l/m 0 min 0 min 0,0 UV-I 0 W/m 0,0 km/h (0 Bft)
13.11.2013 00:50 7,8 C 6,1 C 98 % 1028,5 hPa 0,0 l/m 0 min 0 min 0,0 UV-I 0 W/m 0,0 km/h (0 Bft)
13.11.2013 00:52 7,7 C 6,1 C 98 % 1028,5 hPa 0,0 l/m 0 min 0 min 0,0 UV-I 0 W/m 0,0 km/h (0 Bft)
13.11.2013 00:54 7,7 C 6,1 C 98 % 1028,6 hPa 0,0 l/m 0 min 0 min 0,0 UV-I 0 W/m 0,0 km/h (0 Bft)
13.11.2013 00:56 7,7 C 6,1 C 98 % 1028,6 hPa 0,0 l/m 0 min 0 min 0,0 UV-I 0 W/m 0,0 km/h (0 Bft)
13.11.2013 00:58 7,7 C 6,1 C 98 % 1028,5 hPa 0,0 l/m 0 min 0 min 0,0 UV-I 0 W/m 0,0 km/h (0 Bft)
13.11.2013 01:00 7,7 C 6,1 C 98 % 1028,6 hPa 0,0 l/m 0 min 0 min 0,0 UV-I 0 W/m 0,0 km/h (0 Bft)
13.11.2013 01:02 7,7 C 5,6 C 98 % 1028,5 hPa 0,0 l/m 0 min 0 min 0,0 UV-I 0 W/m 0,0 km/h (0 Bft)
13.11.2013 01:06 7,6 C 5,6 C 98 % 1028,5 hPa 0,0 l/m 0 min 0 min 0,0 UV-I 0 W/m 0,0 km/h (0 Bft)
13.11.2013 01:08 7,6 C 5,6 C 98 % 1028,5 hPa 0,0 l/m 0 min 0 min 0,0 UV-I 0 W/m 0,0 km/h (0 Bft)
13.11.2013 01:10 7,6 C 5,6 C 98 % 1028,5 hPa 0,0 l/m 0 min 0 min 0,0 UV-I 0 W/m 0,0 km/h (0 Bft)
13.11.2013 01:12 7,6 C 5,6 C 98 % 1028,6 hPa 0,0 l/m 0 min 0 min 0,0 UV-I 0 W/m 0,0 km/h (0 Bft)
13.11.2013 01:14 7,5 C 5,6 C 98 % 1028,7 hPa 0,0 l/m 0 min 0 min 0,0 UV-I 0 W/m 0,0 km/h (0 Bft)
13.11.2013 01:16 7,5 C 5,6 C 98 % 1028,8 hPa 0,0 l/m 0 min 0 min 0,0 UV-I 0 W/m 0,0 km/h (0 Bft)
13.11.2013 01:18 7,5 C 5,6 C 98 % 1028,8 hPa 0,0 l/m 0 min 0 min 0,0 UV-I 0 W/m 0,0 km/h (0 Bft)
13.11.2013 01:20 7,4 C 5,6 C 98 % 1028,8 hPa 0,0 l/m 0 min 0 min 0,0 UV-I 0 W/m 0,0 km/h (0 Bft)
13.11.2013 01:22 7,4 C 5,0 C 98 % 1028,8 hPa 0,0 l/m 0 min 0 min 0,0 UV-I 0 W/m 0,0 km/h (0 Bft)
13.11.2013 01:24 7,4 C 5,0 C 98 % 1028,9 hPa 0,0 l/m 0 min 0 min 0,0 UV-I 0 W/m 0,0 km/h (0 Bft)
13.11.2013 01:26 7,4 C 5,0 C 98 % 1028,9 hPa 0,0 l/m 0 min 0 min 0,0 UV-I 0 W/m 0,0 km/h (0 Bft)
13.11.2013 01:28 7,3 C 5,0 C 98 % 1028,9 hPa 0,0 l/m 0 min 0 min 0,0 UV-I 0 W/m 0,0 km/h (0 Bft)
13.11.2013 01:30 7,3 C 5,0 C 98 % 1028,9 hPa 0,0 l/m 0 min 0 min 0,0 UV-I 0 W/m 0,0 km/h (0 Bft)
13.11.2013 01:32 7,3 C 5,0 C 98 % 1028,8 hPa 0,0 l/m 0 min 0 min 0,0 UV-I 0 W/m 0,0 km/h (0 Bft)
13.11.2013 01:34 7,2 C 5,0 C 98 % 1028,8 hPa 0,0 l/m 0 min 0 min 0,0 UV-I 0 W/m 0,0 km/h (0 Bft)
13.11.2013 01:36 7,2 C 5,0 C 98 % 1028,8 hPa 0,0 l/m 0 min 0 min 0,0 UV-I 0 W/m 0,0 km/h (0 Bft)
13.11.2013 01:38 7,2 C 5,0 C 98 % 1028,9 hPa 0,0 l/m 0 min 0 min 0,0 UV-I 0 W/m 0,0 km/h (0 Bft)
13.11.2013 01:40 7,2 C 5,0 C 98 % 1028,9 hPa 0,0 l/m 0 min 0 min 0,0 UV-I 0 W/m 0,0 km/h (0 Bft)
13.11.2013 01:42 7,1 C 5,0 C 98 % 1029,0 hPa 0,0 l/m 0 min 0 min 0,0 UV-I 0 W/m 0,0 km/h (0 Bft)
13.11.2013 01:44 7,1 C 5,0 C 98 % 1029,0 hPa 0,0 l/m 0 min 0 min 0,0 UV-I 0 W/m 0,0 km/h (0 Bft)
13.11.2013 01:46 7,1 C 5,0 C 98 % 1029,1 hPa 0,0 l/m 0 min 0 min 0,0 UV-I 0 W/m 0,0 km/h (0 Bft)
13.11.2013 01:48 7,0 C 5,6 C 98 % 1029,0 hPa 0,0 l/m 0 min 0 min 0,0 UV-I 0 W/m 0,0 km/h (0 Bft)
13.11.2013 01:50 7,0 C 5,6 C 98 % 1029,0 hPa 0,0 l/m 0 min 0 min 0,0 UV-I 0 W/m 0,0 km/h (0 Bft)
13.11.2013 01:52 7,0 C 5,6 C 98 % 1029,0 hPa 0,0 l/m 0 min 0 min 0,0 UV-I 0 W/m 0,0 km/h (0 Bft)
13.11.2013 01:54 6,9 C 5,6 C 98 % 1028,9 hPa 0,0 l/m 0 min 0 min 0,0 UV-I 0 W/m 0,0 km/h (0 Bft)
13.11.2013 01:56 6,9 C 5,0 C 98 % 1028,9 hPa 0,0 l/m 0 min 0 min 0,0 UV-I 0 W/m 0,0 km/h (0 Bft)
13.11.2013 01:58 6,9 C 5,0 C 98 % 1029,0 hPa 0,0 l/m 0 min 0 min 0,0 UV-I 0 W/m 0,0 km/h (0 Bft)
13.11.2013 02:00 6,9 C 5,0 C 98 % 1029,0 hPa 0,0 l/m 0 min 0 min 0,0 UV-I 0 W/m 0,0 km/h (0 Bft)
13.11.2013 02:02 6,9 C 5,0 C 98 % 1028,9 hPa 0,0 l/m 0 min 0 min 0,0 UV-I 0 W/m 0,0 km/h (0 Bft)
13.11.2013 02:06 6,9 C 5,0 C 98 % 1029,0 hPa 0,0 l/m 0 min 0 min 0,0 UV-I 0 W/m 0,0 km/h (0 Bft)
13.11.2013 02:08 6,8 C 5,0 C 98 % 1029,1 hPa 0,0 l/m 0 min 0 min 0,0 UV-I 0 W/m 0,0 km/h (0 Bft)
13.11.2013 02:10 6,8 C 5,0 C 98 % 1029,1 hPa 0,0 l/m 0 min 0 min 0,0 UV-I 0 W/m 0,0 km/h (0 Bft)
13.11.2013 02:12 6,8 C 5,0 C 98 % 1029,1 hPa 0,0 l/m 0 min 0 min 0,0 UV-I 0 W/m 0,0 km/h (0 Bft)
13.11.2013 02:14 6,8 C 5,0 C 98 % 1029,1 hPa 0,0 l/m 0 min 0 min 0,0 UV-I 0 W/m 0,0 km/h (0 Bft)
13.11.2013 02:16 6,8 C 5,0 C 98 % 1029,2 hPa 0,0 l/m 0 min 0 min 0,0 UV-I 0 W/m 0,0 km/h (0 Bft)
13.11.2013 02:18 6,8 C 5,0 C 98 % 1029,2 hPa 0,0 l/m 0 min 0 min 0,0 UV-I 0 W/m 0,0 km/h (0 Bft)
13.11.2013 02:20 6,8 C 5,0 C 98 % 1029,3 hPa 0,0 l/m 0 min 0 min 0,0 UV-I 0 W/m 0,0 km/h (0 Bft)
13.11.2013 02:22 6,7 C 5,0 C 98 % 1029,3 hPa 0,0 l/m 0 min 0 min 0,0 UV-I 0 W/m 0,0 km/h (0 Bft)
13.11.2013 02:24 6,7 C 5,0 C 98 % 1029,2 hPa 0,0 l/m 0 min 0 min 0,0 UV-I 0 W/m 0,0 km/h (0 Bft)
13.11.2013 02:26 6,7 C 5,0 C 98 % 1029,2 hPa 0,0 l/m 0 min 0 min 0,0 UV-I 0 W/m 0,0 km/h (0 Bft)
13.11.2013 02:28 6,7 C 5,0 C 98 % 1029,2 hPa 0,0 l/m 0 min 0 min 0,0 UV-I 0 W/m 0,0 km/h (0 Bft)
13.11.2013 02:30 6,7 C 5,0 C 98 % 1029,2 hPa 0,0 l/m 0 min 0 min 0,0 UV-I 0 W/m 0,0 km/h (0 Bft)
13.11.2013 02:32 6,7 C 5,0 C 98 % 1029,2 hPa 0,0 l/m 0 min 0 min 0,0 UV-I 0 W/m 0,0 km/h (0 Bft)
13.11.2013 02:34 6,6 C 5,0 C 98 % 1029,2 hPa 0,0 l/m 0 min 0 min 0,0 UV-I 0 W/m 0,0 km/h (0 Bft)
13.11.2013 02:36 6,6 C 4,4 C 98 % 1029,3 hPa 0,0 l/m 0 min 0 min 0,0 UV-I 0 W/m 0,0 km/h (0 Bft)
13.11.2013 02:38 6,6 C 5,0 C 98 % 1029,2 hPa 0,0 l/m 0 min 0 min 0,0 UV-I 0 W/m 0,0 km/h (0 Bft)
13.11.2013 02:40 6,6 C 5,0 C 98 % 1029,3 hPa 0,0 l/m 0 min 0 min 0,0 UV-I 0 W/m 0,0 km/h (0 Bft)
13.11.2013 02:42 6,6 C 5,0 C 98 % 1029,5 hPa 0,0 l/m 0 min 0 min 0,0 UV-I 0 W/m 0,0 km/h (0 Bft)
13.11.2013 02:44 6,5 C 5,0 C 98 % 1029,4 hPa 0,0 l/m 0 min 0 min 0,0 UV-I 0 W/m 0,0 km/h (0 Bft)
13.11.2013 02:46 6,5 C 4,4 C 98 % 1029,4 hPa 0,0 l/m 0 min 0 min 0,0 UV-I 0 W/m 0,0 km/h (0 Bft)
13.11.2013 02:48 6,5 C 4,4 C 98 % 1029,4 hPa 0,0 l/m 0 min 0 min 0,0 UV-I 0 W/m 0,0 km/h (0 Bft)
13.11.2013 02:50 6,4 C 4,4 C 98 % 1029,5 hPa 0,0 l/m 0 min 0 min 0,0 UV-I 0 W/m 0,0 km/h (0 Bft)
13.11.2013 02:52 6,4 C 4,4 C 98 % 1029,5 hPa 0,0 l/m 0 min 0 min 0,0 UV-I 0 W/m 0,0 km/h (0 Bft)
13.11.2013 02:54 6,4 C 4,4 C 98 % 1029,6 hPa 0,0 l/m 0 min 0 min 0,0 UV-I 0 W/m 0,0 km/h (0 Bft)
13.11.2013 02:56 6,4 C 4,4 C 98 % 1029,5 hPa 0,0 l/m 0 min 0 min 0,0 UV-I 0 W/m 0,0 km/h (0 Bft)
13.11.2013 02:58 6,4 C 4,4 C 98 % 1029,5 hPa 0,0 l/m 0 min 0 min 0,0 UV-I 0 W/m 0,0 km/h (0 Bft)
13.11.2013 03:00 6,4 C 4,4 C 98 % 1029,5 hPa 0,0 l/m 0 min 0 min 0,0 UV-I 0 W/m 0,0 km/h (0 Bft)
13.11.2013 03:02 6,4 C 4,4 C 98 % 1029,7 hPa 0,0 l/m 0 min 0 min 0,0 UV-I 0 W/m 0,0 km/h (0 Bft)
13.11.2013 03:06 6,3 C 4,4 C 98 % 1029,7 hPa 0,0 l/m 0 min 0 min 0,0 UV-I 0 W/m 0,0 km/h (0 Bft)
13.11.2013 03:08 6,3 C 4,4 C 98 % 1029,6 hPa 0,0 l/m 0 min 0 min 0,0 UV-I 0 W/m 0,0 km/h (0 Bft)
13.11.2013 03:10 6,3 C 4,4 C 98 % 1029,7 hPa 0,0 l/m 0 min 0 min 0,0 UV-I 0 W/m 0,0 km/h (0 Bft)
13.11.2013 03:12 6,2 C 4,4 C 98 % 1029,7 hPa 0,0 l/m 0 min 0 min 0,0 UV-I 0 W/m 0,0 km/h (0 Bft)
13.11.2013 03:14 6,2 C 4,4 C 98 % 1029,7 hPa 0,0 l/m 0 min 0 min 0,0 UV-I 0 W/m 0,0 km/h (0 Bft)
13.11.2013 03:16 6,2 C 4,4 C 98 % 1029,7 hPa 0,0 l/m 0 min 0 min 0,0 UV-I 0 W/m 0,0 km/h (0 Bft)
13.11.2013 03:18 6,2 C 4,4 C 98 % 1029,7 hPa 0,0 l/m 0 min 0 min 0,0 UV-I 0 W/m 0,0 km/h (0 Bft)
13.11.2013 03:20 6,2 C 4,4 C 98 % 1029,7 hPa 0,0 l/m 0 min 0 min 0,0 UV-I 0 W/m 0,0 km/h (0 Bft)
13.11.2013 03:22 6,2 C 4,4 C 98 % 1029,7 hPa 0,0 l/m 0 min 0 min 0,0 UV-I 0 W/m 0,0 km/h (0 Bft)
13.11.2013 03:24 6,1 C 4,4 C 98 % 1029,7 hPa 0,0 l/m 0 min 0 min 0,0 UV-I 0 W/m 0,0 km/h (0 Bft)
13.11.2013 03:26 6,1 C 4,4 C 98 % 1029,7 hPa 0,0 l/m 0 min 0 min 0,0 UV-I 0 W/m 0,0 km/h (0 Bft)
13.11.2013 03:28 6,1 C 4,4 C 98 % 1029,7 hPa 0,0 l/m 0 min 0 min 0,0 UV-I 0 W/m 0,0 km/h (0 Bft)
13.11.2013 03:30 6,1 C 4,4 C 98 % 1029,6 hPa 0,0 l/m 0 min 0 min 0,0 UV-I 0 W/m 0,0 km/h (0 Bft)
13.11.2013 03:32 6,1 C 4,4 C 98 % 1029,6 hPa 0,0 l/m 0 min 0 min 0,0 UV-I 0 W/m 0,0 km/h (0 Bft)
13.11.2013 03:34 6,0 C 3,9 C 98 % 1029,6 hPa 0,0 l/m 0 min 0 min 0,0 UV-I 0 W/m 0,0 km/h (0 Bft)
13.11.2013 03:36 6,0 C 3,9 C 98 % 1029,6 hPa 0,0 l/m 0 min 0 min 0,0 UV-I 0 W/m 0,0 km/h (0 Bft)
13.11.2013 03:38 6,0 C 3,9 C 98 % 1029,7 hPa 0,0 l/m 0 min 0 min 0,0 UV-I 0 W/m 0,0 km/h (0 Bft)
13.11.2013 03:40 5,9 C 3,9 C 98 % 1029,7 hPa 0,0 l/m 0 min 0 min 0,0 UV-I 0 W/m 0,0 km/h (0 Bft)
13.11.2013 03:42 5,9 C 3,9 C 98 % 1029,8 hPa 0,0 l/m 0 min 0 min 0,0 UV-I 0 W/m 0,0 km/h (0 Bft)
13.11.2013 03:44 5,9 C 3,9 C 98 % 1029,8 hPa 0,0 l/m 0 min 0 min 0,0 UV-I 0 W/m 0,0 km/h (0 Bft)
13.11.2013 03:46 5,9 C 3,9 C 98 % 1029,8 hPa 0,0 l/m 0 min 0 min 0,0 UV-I 0 W/m 0,0 km/h (0 Bft)
13.11.2013 03:48 5,9 C 3,9 C 98 % 1029,7 hPa 0,0 l/m 0 min 0 min 0,0 UV-I 0 W/m 0,0 km/h (0 Bft)
13.11.2013 03:50 5,8 C 3,3 C 98 % 1029,7 hPa 0,0 l/m 0 min 0 min 0,0 UV-I 0 W/m 0,0 km/h (0 Bft)
13.11.2013 03:52 5,8 C 3,3 C 98 % 1029,8 hPa 0,0 l/m 0 min 0 min 0,0 UV-I 0 W/m 0,0 km/h (0 Bft)
13.11.2013 03:54 5,8 C 3,3 C 98 % 1029,7 hPa 0,0 l/m 0 min 0 min 0,0 UV-I 0 W/m 0,0 km/h (0 Bft)
13.11.2013 03:56 5,7 C 3,3 C 98 % 1029,7 hPa 0,0 l/m 0 min 0 min 0,0 UV-I 0 W/m 0,0 km/h (0 Bft)
13.11.2013 03:58 5,7 C 3,3 C 98 % 1029,7 hPa 0,0 l/m 0 min 0 min 0,0 UV-I 0 W/m 0,0 km/h (0 Bft)
13.11.2013 04:00 5,7 C 3,3 C 98 % 1029,8 hPa 0,0 l/m 0 min 0 min 0,0 UV-I 0 W/m 0,0 km/h (0 Bft)
13.11.2013 04:02 5,6 C 3,3 C 98 % 1029,8 hPa 0,0 l/m 0 min 0 min 0,0 UV-I 0 W/m 0,0 km/h (0 Bft)
13.11.2013 04:06 5,6 C 3,3 C 98 % 1029,9 hPa 0,0 l/m 0 min 0 min 0,0 UV-I 0 W/m 0,0 km/h (0 Bft)
13.11.2013 04:08 5,5 C 2,8 C 98 % 1029,9 hPa 0,0 l/m 0 min 0 min 0,0 UV-I 0 W/m 0,0 km/h (0 Bft)
13.11.2013 04:10 5,4 C 2,8 C 98 % 1029,9 hPa 0,0 l/m 0 min 0 min 0,0 UV-I 0 W/m 0,0 km/h (0 Bft)
13.11.2013 04:12 5,4 C 2,8 C 98 % 1030,0 hPa 0,0 l/m 0 min 0 min 0,0 UV-I 0 W/m 0,0 km/h (0 Bft)
13.11.2013 04:14 5,4 C 2,8 C 98 % 1030,0 hPa 0,0 l/m 0 min 0 min 0,0 UV-I 0 W/m 0,0 km/h (0 Bft)
13.11.2013 04:16 5,3 C 2,8 C 98 % 1029,9 hPa 0,0 l/m 0 min 0 min 0,0 UV-I 0 W/m 0,0 km/h (0 Bft)
13.11.2013 04:18 5,3 C 2,8 C 98 % 1029,9 hPa 0,0 l/m 0 min 0 min 0,0 UV-I 0 W/m 0,0 km/h (0 Bft)
13.11.2013 04:20 5,2 C 2,8 C 98 % 1029,9 hPa 0,0 l/m 0 min 0 min 0,0 UV-I 0 W/m 0,0 km/h (0 Bft)
13.11.2013 04:22 5,2 C 2,8 C 98 % 1030,0 hPa 0,0 l/m 0 min 0 min 0,0 UV-I 0 W/m 0,0 km/h (0 Bft)
13.11.2013 04:24 5,1 C 2,8 C 98 % 1030,0 hPa 0,0 l/m 0 min 0 min 0,0 UV-I 0 W/m 0,0 km/h (0 Bft)
13.11.2013 04:26 5,1 C 2,8 C 98 % 1029,9 hPa 0,0 l/m 0 min 0 min 0,0 UV-I 0 W/m 0,0 km/h (0 Bft)
13.11.2013 04:28 5,0 C 2,8 C 98 % 1029,9 hPa 0,0 l/m 0 min 0 min 0,0 UV-I 0 W/m 0,0 km/h (0 Bft)
13.11.2013 04:30 4,9 C 2,8 C 98 % 1029,9 hPa 0,0 l/m 0 min 0 min 0,0 UV-I 0 W/m 0,0 km/h (0 Bft)
13.11.2013 04:32 4,9 C 2,8 C 97 % 1030,0 hPa 0,0 l/m 0 min 0 min 0,0 UV-I 0 W/m 0,0 km/h (0 Bft)
13.11.2013 04:34 4,9 C 2,8 C 97 % 1029,9 hPa 0,0 l/m 0 min 0 min 0,0 UV-I 0 W/m 0,0 km/h (0 Bft)
13.11.2013 04:36 4,8 C 2,2 C 97 % 1029,9 hPa 0,0 l/m 0 min 0 min 0,0 UV-I 0 W/m 0,0 km/h (0 Bft)
13.11.2013 04:38 4,8 C 2,2 C 98 % 1029,9 hPa 0,0 l/m 0 min 0 min 0,0 UV-I 0 W/m 0,0 km/h (0 Bft)
13.11.2013 04:40 4,7 C 2,2 C 98 % 1029,9 hPa 0,0 l/m 0 min 0 min 0,0 UV-I 0 W/m 0,0 km/h (0 Bft)
13.11.2013 04:42 4,7 C 2,2 C 98 % 1029,9 hPa 0,0 l/m 0 min 0 min 0,0 UV-I 0 W/m 0,0 km/h (0 Bft)
13.11.2013 04:44 4,6 C 2,2 C 98 % 1030,0 hPa 0,0 l/m 0 min 0 min 0,0 UV-I 0 W/m 0,0 km/h (0 Bft)
13.11.2013 04:46 4,6 C 2,2 C 97 % 1030,0 hPa 0,0 l/m 0 min 0 min 0,0 UV-I 0 W/m 0,0 km/h (0 Bft)
13.11.2013 04:48 4,5 C 2,2 C 97 % 1030,0 hPa 0,0 l/m 0 min 0 min 0,0 UV-I 0 W/m 0,0 km/h (0 Bft)
13.11.2013 04:50 4,5 C 2,2 C 97 % 1030,0 hPa 0,0 l/m 0 min 0 min 0,0 UV-I 0 W/m 0,0 km/h (0 Bft)
13.11.2013 04:52 4,4 C 2,2 C 97 % 1030,0 hPa 0,0 l/m 0 min 0 min 0,0 UV-I 0 W/m 0,0 km/h (0 Bft)
13.11.2013 04:54 4,4 C 2,2 C 98 % 1030,1 hPa 0,0 l/m 0 min 0 min 0,0 UV-I 0 W/m 0,0 km/h (0 Bft)
13.11.2013 04:56 4,4 C 2,2 C 98 % 1030,1 hPa 0,0 l/m 0 min 0 min 0,0 UV-I 0 W/m 0,0 km/h (0 Bft)
13.11.2013 04:58 4,3 C 2,2 C 98 % 1030,1 hPa 0,0 l/m 0 min 0 min 0,0 UV-I 0 W/m 0,0 km/h (0 Bft)
13.11.2013 05:00 4,3 C 2,2 C 98 % 1030,2 hPa 0,0 l/m 0 min 0 min 0,0 UV-I 0 W/m 0,0 km/h (0 Bft)
13.11.2013 05:02 4,2 C 2,2 C 97 % 1030,1 hPa 0,0 l/m 0 min 0 min 0,0 UV-I 0 W/m 0,0 km/h (0 Bft)
13.11.2013 05:06 4,2 C 2,2 C 97 % 1030,2 hPa 0,0 l/m 0 min 0 min 0,0 UV-I 0 W/m 0,0 km/h (0 Bft)
13.11.2013 05:08 4,2 C 2,2 C 97 % 1030,2 hPa 0,0 l/m 0 min 2 min 0,0 UV-I 0 W/m 0,0 km/h (0 Bft)
13.11.2013 05:10 4,1 C 2,2 C 97 % 1030,3 hPa 0,0 l/m 0 min 0 min 0,0 UV-I 0 W/m 0,0 km/h (0 Bft)
13.11.2013 05:12 4,1 C 2,2 C 97 % 1030,1 hPa 0,0 l/m 0 min 0 min 0,0 UV-I 0 W/m 0,0 km/h (0 Bft)
13.11.2013 05:14 4,1 C 2,2 C 97 % 1030,2 hPa 0,0 l/m 0 min 0 min 0,0 UV-I 0 W/m 0,0 km/h (0 Bft)
13.11.2013 05:16 4,0 C 2,2 C 97 % 1030,3 hPa 0,0 l/m 0 min 0 min 0,0 UV-I 0 W/m 0,0 km/h (0 Bft)
13.11.2013 05:18 4,0 C 2,2 C 97 % 1030,3 hPa 0,0 l/m 0 min 0 min 0,0 UV-I 0 W/m 0,0 km/h (0 Bft)
13.11.2013 05:20 3,9 C 2,2 C 97 % 1030,2 hPa 0,0 l/m 0 min 0 min 0,0 UV-I 0 W/m 0,0 km/h (0 Bft)
13.11.2013 05:22 3,9 C 2,2 C 97 % 1030,2 hPa 0,0 l/m 0 min 0 min 0,0 UV-I 0 W/m 0,0 km/h (0 Bft)
13.11.2013 05:24 3,9 C 2,2 C 97 % 1030,2 hPa 0,0 l/m 0 min 0 min 0,0 UV-I 0 W/m 0,0 km/h (0 Bft)
13.11.2013 05:26 3,8 C 1,7 C 97 % 1030,3 hPa 0,0 l/m 0 min 0 min 0,0 UV-I 0 W/m 0,0 km/h (0 Bft)
13.11.2013 05:28 3,8 C 1,7 C 97 % 1030,3 hPa 0,0 l/m 0 min 0 min 0,0 UV-I 0 W/m 0,0 km/h (0 Bft)
13.11.2013 05:30 3,8 C 1,7 C 97 % 1030,3 hPa 0,0 l/m 0 min 0 min 0,0 UV-I 0 W/m 0,0 km/h (0 Bft)
13.11.2013 05:32 3,7 C 1,7 C 97 % 1030,3 hPa 0,0 l/m 0 min 0 min 0,0 UV-I 0 W/m 0,0 km/h (0 Bft)
13.11.2013 05:34 3,7 C 1,7 C 97 % 1030,3 hPa 0,0 l/m 0 min 0 min 0,0 UV-I 0 W/m 0,0 km/h (0 Bft)
13.11.2013 05:36 3,7 C 1,7 C 97 % 1030,3 hPa 0,0 l/m 0 min 0 min 0,0 UV-I 0 W/m 0,0 km/h (0 Bft)
13.11.2013 05:38 3,7 C 1,7 C 97 % 1030,3 hPa 0,0 l/m 0 min 0 min 0,0 UV-I 0 W/m 0,0 km/h (0 Bft)
13.11.2013 05:40 3,7 C 1,7 C 97 % 1030,3 hPa 0,0 l/m 0 min 0 min 0,0 UV-I 0 W/m 0,0 km/h (0 Bft)
13.11.2013 05:42 3,6 C 1,7 C 97 % 1030,4 hPa 0,0 l/m 0 min 0 min 0,0 UV-I 0 W/m 0,0 km/h (0 Bft)
13.11.2013 05:44 3,6 C 1,7 C 97 % 1030,5 hPa 0,0 l/m 0 min 0 min 0,0 UV-I 0 W/m 0,0 km/h (0 Bft)
13.11.2013 05:46 3,6 C 1,7 C 97 % 1030,5 hPa 0,0 l/m 0 min 0 min 0,0 UV-I 0 W/m 0,0 km/h (0 Bft)
13.11.2013 05:48 3,6 C 1,7 C 97 % 1030,4 hPa 0,0 l/m 0 min 0 min 0,0 UV-I 0 W/m 0,0 km/h (0 Bft)
13.11.2013 05:50 3,6 C 1,7 C 97 % 1030,5 hPa 0,0 l/m 0 min 0 min 0,0 UV-I 0 W/m 0,0 km/h (0 Bft)
13.11.2013 05:52 3,6 C 1,7 C 97 % 1030,6 hPa 0,0 l/m 0 min 0 min 0,0 UV-I 0 W/m 0,0 km/h (0 Bft)
13.11.2013 05:54 3,6 C 1,7 C 97 % 1030,6 hPa 0,0 l/m 0 min 0 min 0,0 UV-I 0 W/m 0,0 km/h (0 Bft)
13.11.2013 05:56 3,5 C 1,7 C 97 % 1030,6 hPa 0,0 l/m 0 min 0 min 0,0 UV-I 0 W/m 0,0 km/h (0 Bft)
13.11.2013 05:58 3,5 C 1,7 C 97 % 1030,6 hPa 0,0 l/m 0 min 0 min 0,0 UV-I 0 W/m 0,0 km/h (0 Bft)
13.11.2013 06:00 3,4 C 1,7 C 97 % 1030,7 hPa 0,0 l/m 0 min 0 min 0,0 UV-I 0 W/m 0,0 km/h (0 Bft)
13.11.2013 06:02 3,4 C 1,7 C 97 % 1030,7 hPa 0,0 l/m 0 min 0 min 0,0 UV-I 0 W/m 0,0 km/h (0 Bft)
13.11.2013 06:06 3,4 C 1,7 C 97 % 1030,7 hPa 0,0 l/m 0 min 0 min 0,0 UV-I 0 W/m 0,0 km/h (0 Bft)
13.11.2013 06:08 3,4 C 1,1 C 97 % 1030,7 hPa 0,0 l/m 0 min 0 min 0,0 UV-I 0 W/m 0,0 km/h (0 Bft)
13.11.2013 06:10 3,3 C 1,1 C 97 % 1030,6 hPa 0,0 l/m 0 min 0 min 0,0 UV-I 0 W/m 0,0 km/h (0 Bft)
13.11.2013 06:12 3,3 C 1,1 C 97 % 1030,7 hPa 0,0 l/m 0 min 0 min 0,0 UV-I 0 W/m 0,0 km/h (0 Bft)
13.11.2013 06:14 3,3 C 1,1 C 97 % 1030,8 hPa 0,0 l/m 0 min 0 min 0,0 UV-I 0 W/m 0,0 km/h (0 Bft)
13.11.2013 06:16 3,3 C 1,1 C 97 % 1030,8 hPa 0,0 l/m 0 min 0 min 0,0 UV-I 0 W/m 0,0 km/h (0 Bft)
13.11.2013 06:18 3,2 C 1,1 C 97 % 1030,7 hPa 0,0 l/m 0 min 0 min 0,0 UV-I 0 W/m 0,0 km/h (0 Bft)
13.11.2013 06:20 3,2 C 1,1 C 97 % 1030,7 hPa 0,0 l/m 0 min 0 min 0,0 UV-I 0 W/m 0,0 km/h (0 Bft)
13.11.2013 06:22 3,2 C 1,1 C 97 % 1030,7 hPa 0,0 l/m 0 min 0 min 0,0 UV-I 0 W/m 0,0 km/h (0 Bft)
13.11.2013 06:24 3,2 C 1,1 C 97 % 1030,7 hPa 0,0 l/m 0 min 0 min 0,0 UV-I 0 W/m 0,0 km/h (0 Bft)
13.11.2013 06:26 3,2 C 1,7 C 97 % 1030,7 hPa 0,0 l/m 0 min 0 min 0,0 UV-I 0 W/m 0,0 km/h (0 Bft)
13.11.2013 06:28 3,2 C 1,7 C 97 % 1030,8 hPa 0,0 l/m 0 min 0 min 0,0 UV-I 0 W/m 0,0 km/h (0 Bft)
13.11.2013 06:30 3,2 C 1,7 C 97 % 1030,8 hPa 0,0 l/m 0 min 0 min 0,0 UV-I 0 W/m 0,0 km/h (0 Bft)
13.11.2013 06:32 3,1 C 1,7 C 97 % 1030,7 hPa 0,0 l/m 0 min 0 min 0,0 UV-I 0 W/m 0,0 km/h (0 Bft)
13.11.2013 06:34 3,1 C 1,1 C 97 % 1030,7 hPa 0,0 l/m 0 min 0 min 0,0 UV-I 0 W/m 0,0 km/h (0 Bft)
13.11.2013 06:36 3,1 C 1,1 C 97 % 1030,8 hPa 0,0 l/m 0 min 0 min 0,0 UV-I 0 W/m 0,0 km/h (0 Bft)
13.11.2013 06:38 3,1 C 1,1 C 97 % 1030,7 hPa 0,0 l/m 0 min 0 min 0,0 UV-I 0 W/m 0,0 km/h (0 Bft)
13.11.2013 06:40 3,1 C 1,1 C 97 % 1030,7 hPa 0,0 l/m 0 min 0 min 0,0 UV-I 0 W/m 0,0 km/h (0 Bft)
13.11.2013 06:42 3,1 C 1,1 C 97 % 1030,8 hPa 0,0 l/m 0 min 0 min 0,0 UV-I 0 W/m 0,0 km/h (0 Bft)
13.11.2013 06:44 3,1 C 1,1 C 97 % 1030,8 hPa 0,0 l/m 0 min 0 min 0,0 UV-I 0 W/m 0,0 km/h (0 Bft)
13.11.2013 06:46 3,1 C 1,1 C 97 % 1030,8 hPa 0,0 l/m 0 min 0 min 0,0 UV-I 0 W/m 0,0 km/h (0 Bft)
13.11.2013 06:48 3,1 C 1,1 C 97 % 1030,8 hPa 0,0 l/m 0 min 0 min 0,0 UV-I 0 W/m 0,0 km/h (0 Bft)
13.11.2013 06:50 3,1 C 1,1 C 97 % 1030,8 hPa 0,0 l/m 0 min 0 min 0,0 UV-I 0 W/m 0,0 km/h (0 Bft)
13.11.2013 06:52 3,0 C 1,1 C 97 % 1030,8 hPa 0,0 l/m 0 min 0 min 0,0 UV-I 0 W/m 0,0 km/h (0 Bft)
13.11.2013 06:54 3,0 C 1,1 C 97 % 1030,8 hPa 0,0 l/m 0 min 0 min 0,0 UV-I 0 W/m 0,0 km/h (0 Bft)
13.11.2013 06:56 3,0 C 1,1 C 97 % 1030,9 hPa 0,0 l/m 0 min 0 min 0,0 UV-I 0 W/m 0,0 km/h (0 Bft)
13.11.2013 06:58 2,9 C 1,1 C 97 % 1031,0 hPa 0,0 l/m 0 min 0 min 0,0 UV-I 0 W/m 0,0 km/h (0 Bft)
13.11.2013 07:00 2,9 C 1,1 C 97 % 1031,0 hPa 0,0 l/m 0 min 0 min 0,0 UV-I 0 W/m 0,0 km/h (0 Bft)
13.11.2013 07:02 2,9 C 1,1 C 97 % 1031,0 hPa 0,0 l/m 0 min 0 min 0,0 UV-I 0 W/m 0,0 km/h (0 Bft)
13.11.2013 07:06 2,9 C 1,1 C 97 % 1031,1 hPa 0,0 l/m 0 min 0 min 0,0 UV-I 0 W/m 0,0 km/h (0 Bft)
13.11.2013 07:08 2,8 C 0,6 C 97 % 1031,1 hPa 0,0 l/m 0 min 0 min 0,0 UV-I 0 W/m 0,0 km/h (0 Bft)
13.11.2013 07:10 2,8 C 0,6 C 97 % 1031,1 hPa 0,0 l/m 0 min 0 min 0,0 UV-I 0 W/m 0,0 km/h (0 Bft)
13.11.2013 07:12 2,8 C 0,6 C 97 % 1031,1 hPa 0,0 l/m 0 min 0 min 0,0 UV-I 0 W/m 0,0 km/h (0 Bft)
13.11.2013 07:14 2,7 C 0,6 C 97 % 1031,1 hPa 0,0 l/m 0 min 0 min 0,0 UV-I 0 W/m 0,0 km/h (0 Bft)
13.11.2013 07:16 2,7 C 0,6 C 97 % 1031,1 hPa 0,0 l/m 0 min 0 min 0,0 UV-I 0 W/m 0,0 km/h (0 Bft)
13.11.2013 07:18 2,7 C 0,6 C 97 % 1031,2 hPa 0,0 l/m 0 min 0 min 0,0 UV-I 0 W/m 0,0 km/h (0 Bft)
13.11.2013 07:20 2,6 C 0,6 C 97 % 1031,2 hPa 0,0 l/m 0 min 0 min 0,0 UV-I 0 W/m 0,0 km/h (0 Bft)
13.11.2013 07:22 2,6 C 0,6 C 97 % 1031,2 hPa 0,0 l/m 0 min 0 min 0,0 UV-I 0 W/m 0,0 km/h (0 Bft)
13.11.2013 07:24 2,6 C 0,6 C 97 % 1031,3 hPa 0,0 l/m 0 min 0 min 0,0 UV-I 0 W/m 0,0 km/h (0 Bft)
13.11.2013 07:26 2,5 C 0,6 C 97 % 1031,3 hPa 0,0 l/m 0 min 0 min 0,0 UV-I 0 W/m 0,0 km/h (0 Bft)
13.11.2013 07:28 2,5 C 0,6 C 97 % 1031,3 hPa 0,0 l/m 0 min 0 min 0,0 UV-I 0 W/m 0,0 km/h (0 Bft)
13.11.2013 07:30 2,4 C 0,6 C 97 % 1031,4 hPa 0,0 l/m 0 min 0 min 0,0 UV-I 0 W/m 0,0 km/h (0 Bft)
13.11.2013 07:32 2,4 C 0,6 C 97 % 1031,4 hPa 0,0 l/m 0 min 0 min 0,0 UV-I 0 W/m 0,0 km/h (0 Bft)
13.11.2013 07:34 2,4 C 0,6 C 97 % 1031,3 hPa 0,0 l/m 0 min 0 min 0,0 UV-I 0 W/m 0,0 km/h (0 Bft)
13.11.2013 07:36 2,4 C 0,6 C 97 % 1031,4 hPa 0,0 l/m 0 min 0 min 0,0 UV-I 0 W/m 0,0 km/h (0 Bft)
13.11.2013 07:38 2,3 C 0,6 C 97 % 1031,4 hPa 0,0 l/m 0 min 0 min 0,0 UV-I 0 W/m 0,0 km/h (0 Bft)
13.11.2013 07:40 2,3 C 0,6 C 97 % 1031,4 hPa 0,0 l/m 0 min 0 min 0,0 UV-I 0 W/m 0,0 km/h (0 Bft)
13.11.2013 07:42 2,3 C 0,6 C 97 % 1031,5 hPa 0,0 l/m 0 min 0 min 0,0 UV-I 0 W/m 0,0 km/h (0 Bft)
13.11.2013 07:44 2,2 C 0,6 C 97 % 1031,5 hPa 0,0 l/m 0 min 0 min 0,0 UV-I 0 W/m 0,0 km/h (0 Bft)
13.11.2013 07:46 2,2 C 0,6 C 97 % 1031,5 hPa 0,0 l/m 0 min 0 min 0,0 UV-I 0 W/m 0,0 km/h (0 Bft)
13.11.2013 07:52 2,2 C 0,6 C 97 % 1031,5 hPa 0,0 l/m 0 min 0 min 0,0 UV-I 5 W/m 0,0 km/h (0 Bft)
13.11.2013 07:54 2,1 C 0,6 C 97 % 1031,6 hPa 0,0 l/m 0 min 0 min 0,0 UV-I 5 W/m 0,0 km/h (0 Bft)
13.11.2013 07:56 2,1 C 0,6 C 97 % 1031,6 hPa 0,0 l/m 0 min 0 min 0,0 UV-I 5 W/m 0,0 km/h (0 Bft)
13.11.2013 07:58 2,1 C 0,6 C 97 % 1031,6 hPa 0,0 l/m 0 min 0 min 0,0 UV-I 7 W/m 0,0 km/h (0 Bft)
13.11.2013 08:00 2,1 C 1,1 C 97 % 1031,6 hPa 0,0 l/m 0 min 0 min 0,0 UV-I 7 W/m 0,0 km/h (0 Bft)
13.11.2013 08:02 2,1 C 1,1 C 97 % 1031,6 hPa 0,0 l/m 0 min 0 min 0,0 UV-I 9 W/m 0,0 km/h (0 Bft)
13.11.2013 08:06 2,1 C 1,1 C 97 % 1031,6 hPa 0,0 l/m 0 min 0 min 0,0 UV-I 14 W/m 0,0 km/h (0 Bft)
13.11.2013 08:08 2,1 C 1,1 C 97 % 1031,6 hPa 0,0 l/m 0 min 0 min 0,0 UV-I 14 W/m 0,0 km/h (0 Bft)
13.11.2013 08:10 2,1 C 1,1 C 97 % 1031,6 hPa 0,0 l/m 0 min 0 min 0,0 UV-I 16 W/m 0,0 km/h (0 Bft)
13.11.2013 08:12 2,1 C 1,1 C 97 % 1031,6 hPa 0,0 l/m 0 min 0 min 0,0 UV-I 18 W/m 0,0 km/h (0 Bft)
13.11.2013 08:14 2,1 C 1,1 C 97 % 1031,5 hPa 0,0 l/m 0 min 0 min 0,0 UV-I 19 W/m 0,0 km/h (0 Bft)
13.11.2013 08:16 2,2 C 1,1 C 97 % 1031,5 hPa 0,0 l/m 0 min 0 min 0,0 UV-I 19 W/m 0,0 km/h (0 Bft)
13.11.2013 08:18 2,2 C 1,1 C 97 % 1031,5 hPa 0,0 l/m 0 min 0 min 0,0 UV-I 21 W/m 0,0 km/h (0 Bft)
13.11.2013 08:20 2,2 C 1,1 C 97 % 1031,5 hPa 0,0 l/m 0 min 0 min 0,0 UV-I 23 W/m 0,0 km/h (0 Bft)
13.11.2013 08:22 2,2 C 1,1 C 97 % 1031,6 hPa 0,0 l/m 0 min 0 min 0,0 UV-I 25 W/m 0,0 km/h (0 Bft)
13.11.2013 08:24 2,2 C 1,1 C 97 % 1031,6 hPa 0,0 l/m 0 min 0 min 0,0 UV-I 25 W/m 0,0 km/h (0 Bft)
13.11.2013 08:26 2,2 C 1,7 C 97 % 1031,7 hPa 0,0 l/m 0 min 0 min 0,0 UV-I 25 W/m 0,0 km/h (0 Bft)
13.11.2013 08:28 2,2 C 1,7 C 97 % 1031,7 hPa 0,0 l/m 0 min 0 min 0,0 UV-I 26 W/m 0,0 km/h (0 Bft)
13.11.2013 08:30 2,2 C 1,7 C 97 % 1031,7 hPa 0,0 l/m 0 min 0 min 0,0 UV-I 28 W/m 0,0 km/h (0 Bft)
13.11.2013 08:32 2,3 C 1,7 C 97 % 1031,8 hPa 0,0 l/m 0 min 0 min 0,0 UV-I 30 W/m 0,0 km/h (0 Bft)
13.11.2013 08:34 2,3 C 1,7 C 97 % 1031,8 hPa 0,0 l/m 0 min 0 min 0,0 UV-I 30 W/m 0,0 km/h (0 Bft)
13.11.2013 08:36 2,3 C 1,7 C 98 % 1031,9 hPa 0,0 l/m 0 min 0 min 0,0 UV-I 32 W/m 0,0 km/h (0 Bft)
13.11.2013 08:38 2,3 C 1,7 C 98 % 1031,9 hPa 0,0 l/m 0 min 0 min 0,0 UV-I 30 W/m 0,0 km/h (0 Bft)
13.11.2013 08:40 2,4 C 1,7 C 98 % 1031,9 hPa 0,0 l/m 0 min 0 min 0,0 UV-I 32 W/m 0,0 km/h (0 Bft)
13.11.2013 08:42 2,4 C 1,7 C 98 % 1032,0 hPa 0,0 l/m 0 min 0 min 0,0 UV-I 35 W/m 0,0 km/h (0 Bft)
13.11.2013 08:44 2,4 C 1,7 C 98 % 1032,0 hPa 0,0 l/m 0 min 0 min 0,0 UV-I 37 W/m 0,0 km/h (0 Bft)
13.11.2013 08:46 2,5 C 2,2 C 97 % 1032,0 hPa 0,0 l/m 0 min 0 min 0,0 UV-I 39 W/m 0,0 km/h (0 Bft)
13.11.2013 08:48 2,5 C 2,2 C 97 % 1032,1 hPa 0,0 l/m 0 min 0 min 0,0 UV-I 40 W/m 0,0 km/h (0 Bft)
13.11.2013 08:50 2,6 C 2,2 C 98 % 1032,1 hPa 0,0 l/m 0 min 0 min 0,0 UV-I 40 W/m 0,0 km/h (0 Bft)
13.11.2013 08:52 2,6 C 2,2 C 98 % 1032,1 hPa 0,0 l/m 0 min 0 min 0,0 UV-I 42 W/m 0,0 km/h (0 Bft)
13.11.2013 08:54 2,6 C 2,2 C 98 % 1032,2 hPa 0,0 l/m 0 min 0 min 0,0 UV-I 42 W/m 0,0 km/h (0 Bft)
13.11.2013 08:56 2,6 C 2,2 C 98 % 1032,2 hPa 0,0 l/m 0 min 0 min 0,0 UV-I 40 W/m 0,0 km/h (0 Bft)
13.11.2013 08:58 2,7 C 2,2 C 98 % 1032,2 hPa 0,0 l/m 0 min 0 min 0,0 UV-I 46 W/m 0,0 km/h (0 Bft)
13.11.2013 09:00 2,7 C 2,2 C 98 % 1032,2 hPa 0,0 l/m 0 min 0 min 0,0 UV-I 44 W/m 0,0 km/h (0 Bft)
13.11.2013 09:02 2,7 C 2,2 C 98 % 1032,2 hPa 0,0 l/m 0 min 0 min 0,0 UV-I 44 W/m 0,0 km/h (0 Bft)
13.11.2013 09:06 2,8 C 2,2 C 98 % 1032,2 hPa 0,0 l/m 0 min 0 min 0,0 UV-I 53 W/m 0,0 km/h (0 Bft)
13.11.2013 09:08 2,8 C 2,8 C 98 % 1032,2 hPa 0,0 l/m 0 min 0 min 0,0 UV-I 72 W/m 0,0 km/h (0 Bft)
13.11.2013 09:10 2,9 C 2,8 C 98 % 1032,3 hPa 0,0 l/m 2 min 0 min 0,0 UV-I 114 W/m 0,0 km/h (0 Bft)
13.11.2013 09:12 2,9 C 2,8 C 98 % 1032,3 hPa 0,0 l/m 2 min 0 min 0,0 UV-I 125 W/m 0,0 km/h (0 Bft)
13.11.2013 09:14 2,9 C 2,8 C 98 % 1032,4 hPa 0,0 l/m 2 min 0 min 0,0 UV-I 134 W/m 0,0 km/h (0 Bft)
13.11.2013 09:16 3,0 C 2,8 C 98 % 1032,4 hPa 0,0 l/m 2 min 0 min 0,0 UV-I 134 W/m 0,0 km/h (0 Bft)
13.11.2013 09:18 3,1 C 2,8 C 98 % 1032,4 hPa 0,0 l/m 2 min 0 min 0,0 UV-I 134 W/m 0,0 km/h (0 Bft)
13.11.2013 09:20 3,1 C 2,8 C 98 % 1032,4 hPa 0,0 l/m 2 min 0 min 0,0 UV-I 141 W/m 2,6 km/h (1 Bft)
13.11.2013 09:22 3,2 C 2,8 C 98 % 1032,5 hPa 0,0 l/m 2 min 0 min 0,0 UV-I 146 W/m 0,0 km/h (0 Bft)
13.11.2013 09:24 3,3 C 2,8 C 98 % 1032,5 hPa 0,0 l/m 2 min 0 min 0,0 UV-I 148 W/m 0,0 km/h (0 Bft)
13.11.2013 09:26 3,3 C 3,3 C 98 % 1032,5 hPa 0,0 l/m 2 min 0 min 0,0 UV-I 155 W/m 0,0 km/h (0 Bft)
13.11.2013 09:28 3,4 C 3,3 C 98 % 1032,5 hPa 0,0 l/m 2 min 0 min 0,0 UV-I 155 W/m 0,0 km/h (0 Bft)
13.11.2013 09:30 3,4 C 3,3 C 98 % 1032,5 hPa 0,0 l/m 2 min 0 min 0,0 UV-I 155 W/m 0,0 km/h (0 Bft)
13.11.2013 09:32 3,6 C 3,3 C 98 % 1032,5 hPa 0,0 l/m 2 min 0 min 0,0 UV-I 165 W/m 0,0 km/h (0 Bft)
13.11.2013 09:34 3,7 C 3,3 C 98 % 1032,6 hPa 0,0 l/m 2 min 0 min 0,0 UV-I 169 W/m 0,0 km/h (0 Bft)
13.11.2013 09:36 3,7 C 3,3 C 98 % 1032,6 hPa 0,0 l/m 2 min 0 min 0,0 UV-I 172 W/m 0,0 km/h (0 Bft)
13.11.2013 09:38 3,8 C 3,3 C 98 % 1032,6 hPa 0,0 l/m 2 min 0 min 0,0 UV-I 179 W/m 2,6 km/h (1 Bft)
13.11.2013 09:40 3,9 C 3,3 C 98 % 1032,5 hPa 0,0 l/m 2 min 0 min 0,0 UV-I 183 W/m 0,0 km/h (0 Bft)
13.11.2013 09:42 4,0 C 3,3 C 98 % 1032,6 hPa 0,0 l/m 2 min 0 min 0,0 UV-I 183 W/m 0,0 km/h (0 Bft)
13.11.2013 09:44 4,1 C 3,3 C 98 % 1032,6 hPa 0,0 l/m 2 min 0 min 0,0 UV-I 188 W/m 0,0 km/h (0 Bft)
13.11.2013 09:46 4,2 C 3,9 C 98 % 1032,6 hPa 0,0 l/m 2 min 0 min 0,0 UV-I 193 W/m 2,6 km/h (1 Bft)
13.11.2013 09:48 4,2 C 3,9 C 98 % 1032,6 hPa 0,0 l/m 2 min 0 min 0,0 UV-I 197 W/m 2,6 km/h (1 Bft)
13.11.2013 09:50 4,3 C 3,9 C 98 % 1032,6 hPa 0,0 l/m 2 min 0 min 0,0 UV-I 202 W/m 0,0 km/h (0 Bft)
13.11.2013 09:52 4,4 C 3,9 C 98 % 1032,6 hPa 0,0 l/m 2 min 0 min 0,0 UV-I 206 W/m 2,6 km/h (1 Bft)
13.11.2013 09:54 4,5 C 3,9 C 98 % 1032,6 hPa 0,0 l/m 2 min 0 min 0,0 UV-I 207 W/m 0,0 km/h (0 Bft)
13.11.2013 09:56 4,6 C 3,9 C 98 % 1032,5 hPa 0,0 l/m 2 min 0 min 0,0 UV-I 211 W/m 0,0 km/h (0 Bft)
13.11.2013 09:58 4,6 C 3,9 C 98 % 1032,5 hPa 0,0 l/m 2 min 0 min 0,0 UV-I 214 W/m 2,6 km/h (1 Bft)
13.11.2013 10:00 4,7 C 3,9 C 98 % 1032,5 hPa 0,0 l/m 2 min 0 min 0,0 UV-I 218 W/m 0,0 km/h (0 Bft)
13.11.2013 10:02 4,8 C 3,9 C 98 % 1032,5 hPa 0,0 l/m 2 min 0 min 0,0 UV-I 221 W/m 0,0 km/h (0 Bft)
13.11.2013 10:06 4,9 C 3,9 C 98 % 1032,5 hPa 0,0 l/m 2 min 0 min 0,0 UV-I 227 W/m 0,0 km/h (0 Bft)
13.11.2013 10:08 5,0 C 3,9 C 98 % 1032,6 hPa 0,0 l/m 2 min 0 min 0,0 UV-I 232 W/m 0,0 km/h (0 Bft)
13.11.2013 10:10 5,1 C 3,9 C 98 % 1032,6 hPa 0,0 l/m 2 min 0 min 0,0 UV-I 234 W/m 0,0 km/h (0 Bft)
13.11.2013 10:12 5,1 C 3,9 C 98 % 1032,6 hPa 0,0 l/m 2 min 0 min 0,0 UV-I 236 W/m 0,0 km/h (0 Bft)
13.11.2013 10:14 5,2 C 4,4 C 98 % 1032,5 hPa 0,0 l/m 2 min 0 min 0,0 UV-I 239 W/m 0,0 km/h (0 Bft)
13.11.2013 10:16 5,3 C 4,4 C 98 % 1032,5 hPa 0,0 l/m 2 min 0 min 0,0 UV-I 241 W/m 0,0 km/h (0 Bft)
13.11.2013 10:18 5,3 C 4,4 C 98 % 1032,5 hPa 0,0 l/m 2 min 0 min 0,0 UV-I 244 W/m 0,0 km/h (0 Bft)
13.11.2013 10:20 5,4 C 4,4 C 99 % 1032,5 hPa 0,0 l/m 2 min 0 min 0,0 UV-I 248 W/m 2,6 km/h (1 Bft)
13.11.2013 10:22 5,4 C 4,4 C 98 % 1032,6 hPa 0,0 l/m 2 min 0 min 0,0 UV-I 251 W/m 0,0 km/h (0 Bft)
13.11.2013 10:24 5,6 C 4,4 C 99 % 1032,6 hPa 0,0 l/m 2 min 0 min 0,0 UV-I 251 W/m 0,0 km/h (0 Bft)
13.11.2013 10:26 5,6 C 4,4 C 99 % 1032,6 hPa 0,0 l/m 2 min 0 min 0,0 UV-I 255 W/m 0,0 km/h (0 Bft)
13.11.2013 10:28 5,7 C 4,4 C 98 % 1032,6 hPa 0,0 l/m 2 min 0 min 0,0 UV-I 260 W/m 0,0 km/h (0 Bft)
13.11.2013 10:30 5,8 C 4,4 C 98 % 1032,7 hPa 0,0 l/m 2 min 0 min 0,0 UV-I 258 W/m 0,0 km/h (0 Bft)
13.11.2013 10:32 5,9 C 4,4 C 98 % 1032,7 hPa 0,0 l/m 2 min 0 min 0,0 UV-I 262 W/m 2,6 km/h (1 Bft)
13.11.2013 10:34 5,9 C 5,0 C 99 % 1032,7 hPa 0,0 l/m 2 min 0 min 0,0 UV-I 264 W/m 0,0 km/h (0 Bft)
13.11.2013 10:36 6,1 C 5,0 C 99 % 1032,8 hPa 0,0 l/m 2 min 0 min 0,0 UV-I 265 W/m 2,6 km/h (1 Bft)
13.11.2013 10:38 6,2 C 5,0 C 99 % 1032,8 hPa 0,0 l/m 2 min 0 min 0,0 UV-I 265 W/m 0,0 km/h (0 Bft)
13.11.2013 10:40 6,2 C 5,0 C 99 % 1032,8 hPa 0,0 l/m 2 min 0 min 0,0 UV-I 269 W/m 0,0 km/h (0 Bft)
13.11.2013 10:42 6,3 C 5,0 C 99 % 1032,8 hPa 0,0 l/m 2 min 0 min 0,0 UV-I 271 W/m 0,0 km/h (0 Bft)
13.11.2013 10:44 6,4 C 5,0 C 99 % 1032,8 hPa 0,0 l/m 2 min 0 min 0,0 UV-I 272 W/m 0,0 km/h (0 Bft)
13.11.2013 10:46 6,4 C 5,0 C 99 % 1032,8 hPa 0,0 l/m 2 min 0 min 0,0 UV-I 274 W/m 0,0 km/h (0 Bft)
13.11.2013 10:48 6,6 C 5,0 C 99 % 1032,8 hPa 0,0 l/m 2 min 0 min 0,0 UV-I 278 W/m 0,0 km/h (0 Bft)
13.11.2013 10:50 6,7 C 5,0 C 99 % 1032,8 hPa 0,0 l/m 2 min 0 min 0,0 UV-I 278 W/m 0,0 km/h (0 Bft)
13.11.2013 10:52 6,8 C 5,0 C 99 % 1032,8 hPa 0,0 l/m 2 min 0 min 0,0 UV-I 278 W/m 0,0 km/h (0 Bft)
13.11.2013 10:54 6,9 C 5,0 C 99 % 1032,8 hPa 0,0 l/m 2 min 0 min 0,0 UV-I 281 W/m 0,0 km/h (0 Bft)
13.11.2013 10:56 7,0 C 5,0 C 99 % 1032,8 hPa 0,0 l/m 2 min 0 min 0,0 UV-I 285 W/m 0,0 km/h (0 Bft)
13.11.2013 11:02 7,2 C 5,6 C 99 % 1032,7 hPa 0,0 l/m 2 min 0 min 0,0 UV-I 288 W/m 0,0 km/h (0 Bft)
13.11.2013 11:04 7,3 C 5,6 C 99 % 1032,8 hPa 0,0 l/m 2 min 0 min 0,0 UV-I 292 W/m 2,6 km/h (1 Bft)
13.11.2013 11:06 7,3 C 5,6 C 99 % 1032,7 hPa 0,0 l/m 2 min 0 min 0,0 UV-I 292 W/m 0,0 km/h (0 Bft)
13.11.2013 11:08 7,4 C 5,6 C 99 % 1032,7 hPa 0,0 l/m 2 min 0 min 0,0 UV-I 292 W/m 0,0 km/h (0 Bft)
13.11.2013 11:10 7,5 C 5,6 C 98 % 1032,7 hPa 0,0 l/m 2 min 0 min 0,0 UV-I 292 W/m 0,0 km/h (0 Bft)
13.11.2013 11:12 7,6 C 5,6 C 98 % 1032,7 hPa 0,0 l/m 2 min 0 min 0,0 UV-I 295 W/m 0,0 km/h (0 Bft)
13.11.2013 11:14 7,8 C 5,6 C 98 % 1032,8 hPa 0,0 l/m 2 min 0 min 0,0 UV-I 295 W/m 0,0 km/h (0 Bft)
13.11.2013 11:16 7,8 C 5,6 C 98 % 1032,8 hPa 0,0 l/m 2 min 0 min 0,0 UV-I 295 W/m 0,0 km/h (0 Bft)
13.11.2013 11:18 7,8 C 5,6 C 98 % 1032,7 hPa 0,0 l/m 2 min 0 min 0,0 UV-I 297 W/m 0,0 km/h (0 Bft)
13.11.2013 11:20 7,9 C 6,1 C 98 % 1032,7 hPa 0,0 l/m 2 min 0 min 0,0 UV-I 297 W/m 0,0 km/h (0 Bft)
13.11.2013 11:22 7,9 C 6,1 C 98 % 1032,7 hPa 0,0 l/m 2 min 0 min 0,0 UV-I 299 W/m 0,0 km/h (0 Bft)
13.11.2013 11:24 8,1 C 6,1 C 98 % 1032,7 hPa 0,0 l/m 2 min 0 min 0,0 UV-I 301 W/m 0,0 km/h (0 Bft)
13.11.2013 11:26 8,1 C 6,1 C 98 % 1032,7 hPa 0,0 l/m 2 min 0 min 0,0 UV-I 301 W/m 0,0 km/h (0 Bft)
13.11.2013 11:28 8,3 C 6,1 C 97 % 1032,7 hPa 0,0 l/m 2 min 0 min 0,0 UV-I 301 W/m 0,0 km/h (0 Bft)
13.11.2013 11:30 8,3 C 6,1 C 97 % 1032,7 hPa 0,0 l/m 2 min 0 min 0,0 UV-I 304 W/m 5,1 km/h (1 Bft)
13.11.2013 11:32 8,3 C 6,1 C 96 % 1032,8 hPa 0,0 l/m 2 min 0 min 0,0 UV-I 302 W/m 0,0 km/h (0 Bft)
13.11.2013 11:34 8,4 C 6,1 C 96 % 1032,8 hPa 0,0 l/m 2 min 0 min 0,0 UV-I 302 W/m 0,0 km/h (0 Bft)
13.11.2013 11:36 8,4 C 6,1 C 96 % 1032,7 hPa 0,0 l/m 2 min 0 min 0,0 UV-I 308 W/m 0,0 km/h (0 Bft)
13.11.2013 11:38 8,5 C 6,1 C 95 % 1032,7 hPa 0,0 l/m 2 min 0 min 0,0 UV-I 306 W/m 0,0 km/h (0 Bft)
13.11.2013 11:40 8,6 C 6,7 C 95 % 1032,7 hPa 0,0 l/m 2 min 0 min 0,0 UV-I 308 W/m 5,1 km/h (1 Bft)
13.11.2013 11:42 8,6 C 6,1 C 94 % 1032,7 hPa 0,0 l/m 2 min 0 min 0,0 UV-I 308 W/m 0,0 km/h (0 Bft)
13.11.2013 11:44 8,6 C 6,1 C 93 % 1032,6 hPa 0,0 l/m 2 min 0 min 0,0 UV-I 308 W/m 0,0 km/h (0 Bft)
13.11.2013 11:46 8,7 C 6,7 C 93 % 1032,6 hPa 0,0 l/m 2 min 0 min 0,0 UV-I 309 W/m 0,0 km/h (0 Bft)
13.11.2013 11:48 8,7 C 6,7 C 93 % 1032,5 hPa 0,0 l/m 2 min 0 min 0,0 UV-I 309 W/m 0,0 km/h (0 Bft)
13.11.2013 11:50 8,7 C 6,7 C 92 % 1032,5 hPa 0,0 l/m 2 min 0 min 0,0 UV-I 309 W/m 0,0 km/h (0 Bft)
13.11.2013 11:52 8,8 C 6,7 C 92 % 1032,6 hPa 0,0 l/m 2 min 0 min 0,0 UV-I 309 W/m 0,0 km/h (0 Bft)
13.11.2013 11:54 8,9 C 6,7 C 92 % 1032,6 hPa 0,0 l/m 2 min 0 min 0,0 UV-I 311 W/m 0,0 km/h (0 Bft)
13.11.2013 11:56 9,0 C 6,7 C 91 % 1032,5 hPa 0,0 l/m 2 min 0 min 0,0 UV-I 311 W/m 0,0 km/h (0 Bft)
13.11.2013 11:58 9,0 C 6,7 C 90 % 1032,5 hPa 0,0 l/m 2 min 0 min 0,0 UV-I 311 W/m 0,0 km/h (0 Bft)
13.11.2013 12:06 9,2 C 6,7 C 89 % 1032,5 hPa 0,0 l/m 2 min 0 min 0,0 UV-I 315 W/m 0,0 km/h (0 Bft)
13.11.2013 12:08 9,3 C 6,7 C 89 % 1032,5 hPa 0,0 l/m 2 min 0 min 0,0 UV-I 313 W/m 0,0 km/h (0 Bft)
13.11.2013 12:10 9,3 C 6,7 C 89 % 1032,4 hPa 0,0 l/m 2 min 0 min 0,0 UV-I 311 W/m 0,0 km/h (0 Bft)
13.11.2013 12:12 9,3 C 6,7 C 88 % 1032,4 hPa 0,0 l/m 2 min 0 min 0,0 UV-I 313 W/m 2,6 km/h (1 Bft)
13.11.2013 12:14 9,4 C 7,2 C 88 % 1032,4 hPa 0,0 l/m 2 min 0 min 0,0 UV-I 313 W/m 5,1 km/h (1 Bft)
13.11.2013 12:16 9,5 C 7,2 C 88 % 1032,4 hPa 0,0 l/m 2 min 0 min 0,0 UV-I 313 W/m 0,0 km/h (0 Bft)
13.11.2013 12:18 9,5 C 7,2 C 88 % 1032,4 hPa 0,0 l/m 2 min 0 min 0,0 UV-I 313 W/m 0,0 km/h (0 Bft)
13.11.2013 12:20 9,6 C 7,2 C 88 % 1032,4 hPa 0,0 l/m 2 min 0 min 0,0 UV-I 313 W/m 5,1 km/h (1 Bft)
13.11.2013 12:22 9,7 C 7,2 C 88 % 1032,4 hPa 0,0 l/m 2 min 0 min 0,0 UV-I 309 W/m 0,0 km/h (0 Bft)
13.11.2013 12:24 9,8 C 7,2 C 88 % 1032,4 hPa 0,0 l/m 2 min 0 min 0,0 UV-I 311 W/m 7,7 km/h (2 Bft)
13.11.2013 12:26 9,8 C 7,2 C 86 % 1032,4 hPa 0,0 l/m 2 min 0 min 0,0 UV-I 311 W/m 5,1 km/h (1 Bft)
13.11.2013 12:28 9,8 C 7,2 C 86 % 1032,4 hPa 0,0 l/m 2 min 0 min 0,0 UV-I 313 W/m 2,6 km/h (1 Bft)
13.11.2013 12:30 9,8 C 7,2 C 86 % 1032,4 hPa 0,0 l/m 2 min 0 min 0,0 UV-I 311 W/m 0,0 km/h (0 Bft)
13.11.2013 12:32 9,9 C 7,2 C 86 % 1032,4 hPa 0,0 l/m 2 min 0 min 0,0 UV-I 311 W/m 0,0 km/h (0 Bft)
13.11.2013 12:34 10,0 C 7,2 C 86 % 1032,4 hPa 0,0 l/m 2 min 0 min 0,0 UV-I 313 W/m 7,7 km/h (2 Bft)
13.11.2013 12:36 10,0 C 7,2 C 85 % 1032,4 hPa 0,0 l/m 2 min 0 min 0,0 UV-I 311 W/m 7,7 km/h (2 Bft)
13.11.2013 12:38 9,9 C 7,2 C 84 % 1032,4 hPa 0,0 l/m 2 min 0 min 0,0 UV-I 311 W/m 2,6 km/h (1 Bft)
13.11.2013 12:40 9,8 C 7,2 C 85 % 1032,4 hPa 0,0 l/m 2 min 0 min 0,0 UV-I 311 W/m 0,0 km/h (0 Bft)
13.11.2013 12:42 9,9 C 7,2 C 86 % 1032,3 hPa 0,0 l/m 2 min 0 min 0,0 UV-I 313 W/m 0,0 km/h (0 Bft)
13.11.2013 12:44 9,9 C 7,2 C 85 % 1032,3 hPa 0,0 l/m 2 min 0 min 0,0 UV-I 316 W/m 2,6 km/h (1 Bft)
13.11.2013 12:46 10,1 C 7,2 C 84 % 1032,3 hPa 0,0 l/m 2 min 0 min 0,0 UV-I 315 W/m 2,6 km/h (1 Bft)
13.11.2013 12:48 10,2 C 7,2 C 84 % 1032,3 hPa 0,0 l/m 2 min 0 min 0,0 UV-I 315 W/m 7,7 km/h (2 Bft)
13.11.2013 12:50 10,2 C 7,8 C 84 % 1032,2 hPa 0,0 l/m 2 min 0 min 0,0 UV-I 313 W/m 7,7 km/h (2 Bft)
13.11.2013 12:52 10,2 C 7,8 C 83 % 1032,2 hPa 0,0 l/m 2 min 0 min 0,0 UV-I 311 W/m 10,3 km/h (2 Bft)
13.11.2013 12:54 10,1 C 7,2 C 83 % 1032,2 hPa 0,0 l/m 2 min 0 min 0,0 UV-I 311 W/m 0,0 km/h (0 Bft)
13.11.2013 12:56 10,1 C 7,2 C 83 % 1032,2 hPa 0,0 l/m 2 min 0 min 0,0 UV-I 309 W/m 5,1 km/h (1 Bft)
13.11.2013 12:58 10,0 C 7,2 C 83 % 1032,2 hPa 0,0 l/m 2 min 0 min 0,0 UV-I 311 W/m 7,7 km/h (2 Bft)
13.11.2013 13:00 10,1 C 7,2 C 83 % 1032,2 hPa 0,0 l/m 2 min 0 min 0,0 UV-I 306 W/m 7,7 km/h (2 Bft)
13.11.2013 13:02 10,2 C 7,2 C 83 % 1032,2 hPa 0,0 l/m 2 min 0 min 0,0 UV-I 308 W/m 2,6 km/h (1 Bft)
13.11.2013 13:06 10,2 C 7,2 C 83 % 1032,1 hPa 0,0 l/m 2 min 0 min 0,0 UV-I 308 W/m 5,1 km/h (1 Bft)
13.11.2013 13:08 10,2 C 7,2 C 83 % 1032,1 hPa 0,0 l/m 2 min 0 min 0,0 UV-I 306 W/m 5,1 km/h (1 Bft)
13.11.2013 13:10 10,3 C 7,2 C 83 % 1032,1 hPa 0,0 l/m 2 min 0 min 0,0 UV-I 304 W/m 0,0 km/h (0 Bft)
13.11.2013 13:12 10,3 C 7,2 C 83 % 1032,1 hPa 0,0 l/m 2 min 0 min 0,0 UV-I 302 W/m 0,0 km/h (0 Bft)
13.11.2013 13:14 10,4 C 7,2 C 82 % 1032,1 hPa 0,0 l/m 2 min 0 min 0,0 UV-I 301 W/m 7,7 km/h (2 Bft)
13.11.2013 13:16 10,3 C 7,2 C 82 % 1032,1 hPa 0,0 l/m 2 min 0 min 0,0 UV-I 302 W/m 0,0 km/h (0 Bft)
13.11.2013 13:18 10,3 C 7,2 C 82 % 1032,1 hPa 0,0 l/m 2 min 0 min 0,0 UV-I 302 W/m 2,6 km/h (1 Bft)
13.11.2013 13:20 10,2 C 7,2 C 82 % 1032,1 hPa 0,0 l/m 2 min 0 min 0,0 UV-I 308 W/m 2,6 km/h (1 Bft)
13.11.2013 13:22 10,2 C 7,2 C 82 % 1032,1 hPa 0,0 l/m 2 min 0 min 0,0 UV-I 320 W/m 0,0 km/h (0 Bft)
13.11.2013 13:24 10,3 C 7,2 C 81 % 1032,1 hPa 0,0 l/m 2 min 0 min 0,0 UV-I 332 W/m 5,1 km/h (1 Bft)
13.11.2013 13:26 10,4 C 7,8 C 82 % 1032,0 hPa 0,0 l/m 2 min 0 min 0,0 UV-I 338 W/m 5,1 km/h (1 Bft)
13.11.2013 13:28 10,4 C 7,8 C 82 % 1032,0 hPa 0,0 l/m 2 min 0 min 0,0 UV-I 329 W/m 7,7 km/h (2 Bft)
13.11.2013 13:30 10,4 C 7,8 C 80 % 1032,0 hPa 0,0 l/m 2 min 0 min 0,0 UV-I 327 W/m 2,6 km/h (1 Bft)
13.11.2013 13:32 10,3 C 7,8 C 79 % 1031,9 hPa 0,0 l/m 2 min 0 min 0,0 UV-I 323 W/m 0,0 km/h (0 Bft)
13.11.2013 13:34 10,3 C 7,8 C 80 % 1031,9 hPa 0,0 l/m 2 min 0 min 0,0 UV-I 322 W/m 2,6 km/h (1 Bft)
13.11.2013 13:36 10,2 C 7,8 C 80 % 1031,9 hPa 0,0 l/m 2 min 0 min 0,0 UV-I 322 W/m 0,0 km/h (0 Bft)
13.11.2013 13:38 10,3 C 7,8 C 80 % 1031,9 hPa 0,0 l/m 2 min 0 min 0,0 UV-I 315 W/m 7,7 km/h (2 Bft)
13.11.2013 13:40 10,4 C 7,8 C 80 % 1031,9 hPa 0,0 l/m 2 min 0 min 0,0 UV-I 313 W/m 10,3 km/h (2 Bft)
13.11.2013 13:42 10,3 C 7,8 C 76 % 1031,9 hPa 0,0 l/m 2 min 0 min 0,0 UV-I 308 W/m 10,3 km/h (2 Bft)
13.11.2013 13:44 10,4 C 7,8 C 78 % 1032,0 hPa 0,0 l/m 2 min 0 min 0,0 UV-I 294 W/m 10,3 km/h (2 Bft)
13.11.2013 13:46 10,3 C 7,8 C 77 % 1032,0 hPa 0,0 l/m 2 min 0 min 0,0 UV-I 258 W/m 7,7 km/h (2 Bft)
13.11.2013 13:48 10,2 C 7,8 C 77 % 1032,0 hPa 0,0 l/m 0 min 0 min 0,0 UV-I 121 W/m 2,6 km/h (1 Bft)
13.11.2013 13:50 10,2 C 7,8 C 79 % 1032,1 hPa 0,0 l/m 2 min 0 min 0,0 UV-I 246 W/m 10,3 km/h (2 Bft)
13.11.2013 13:52 10,2 C 7,8 C 78 % 1032,1 hPa 0,0 l/m 2 min 0 min 0,0 UV-I 190 W/m 0,0 km/h (0 Bft)
13.11.2013 13:54 10,2 C 7,8 C 77 % 1032,0 hPa 0,0 l/m 0 min 0 min 0,0 UV-I 141 W/m 0,0 km/h (0 Bft)
13.11.2013 13:56 10,2 C 7,8 C 77 % 1032,0 hPa 0,0 l/m 0 min 0 min 0,0 UV-I 144 W/m 0,0 km/h (0 Bft)
13.11.2013 13:58 10,1 C 7,8 C 78 % 1032,0 hPa 0,0 l/m 2 min 0 min 0,0 UV-I 213 W/m 0,0 km/h (0 Bft)
13.11.2013 14:00 10,1 C 7,8 C 77 % 1032,0 hPa 0,0 l/m 2 min 0 min 0,0 UV-I 190 W/m 0,0 km/h (0 Bft)
13.11.2013 14:02 10,2 C 7,8 C 78 % 1032,0 hPa 0,0 l/m 2 min 0 min 0,0 UV-I 325 W/m 0,0 km/h (0 Bft)
13.11.2013 14:04 10,2 C 7,8 C 79 % 1031,9 hPa 0,0 l/m 2 min 0 min 0,0 UV-I 251 W/m 0,0 km/h (0 Bft)
13.11.2013 14:06 10,3 C 8,3 C 77 % 1031,9 hPa 0,0 l/m 2 min 0 min 0,0 UV-I 213 W/m 2,6 km/h (1 Bft)
13.11.2013 14:08 10,4 C 8,3 C 78 % 1031,9 hPa 0,0 l/m 0 min 0 min 0,0 UV-I 155 W/m 10,3 km/h (2 Bft)
13.11.2013 14:10 10,4 C 8,3 C 77 % 1031,9 hPa 0,0 l/m 2 min 0 min 0,0 UV-I 251 W/m 12,9 km/h (3 Bft)
13.11.2013 14:12 10,3 C 8,3 C 78 % 1031,9 hPa 0,0 l/m 0 min 0 min 0,0 UV-I 132 W/m 0,0 km/h (0 Bft)
13.11.2013 14:14 10,3 C 7,8 C 78 % 1031,8 hPa 0,0 l/m 0 min 0 min 0,0 UV-I 100 W/m 5,1 km/h (1 Bft)
13.11.2013 14:16 10,2 C 7,8 C 78 % 1031,8 hPa 0,0 l/m 0 min 0 min 0,0 UV-I 84 W/m 0,0 km/h (0 Bft)
13.11.2013 14:18 10,1 C 7,8 C 79 % 1031,8 hPa 0,0 l/m 2 min 0 min 0,0 UV-I 260 W/m 5,1 km/h (1 Bft)
13.11.2013 14:20 10,2 C 7,8 C 78 % 1031,8 hPa 0,0 l/m 2 min 0 min 0,0 UV-I 237 W/m 0,0 km/h (0 Bft)
13.11.2013 14:22 10,2 C 7,8 C 77 % 1031,8 hPa 0,0 l/m 0 min 0 min 0,0 UV-I 62 W/m 0,0 km/h (0 Bft)
13.11.2013 14:24 10,2 C 7,8 C 77 % 1031,7 hPa 0,0 l/m 2 min 0 min 0,0 UV-I 202 W/m 7,7 km/h (2 Bft)
13.11.2013 14:26 10,2 C 7,8 C 77 % 1031,7 hPa 0,0 l/m 2 min 0 min 0,0 UV-I 202 W/m 0,0 km/h (0 Bft)
13.11.2013 14:28 10,2 C 7,8 C 77 % 1031,7 hPa 0,0 l/m 2 min 0 min 0,0 UV-I 206 W/m 7,7 km/h (2 Bft)
13.11.2013 14:30 10,2 C 7,8 C 77 % 1031,7 hPa 0,0 l/m 2 min 0 min 0,0 UV-I 209 W/m 7,7 km/h (2 Bft)
13.11.2013 14:32 10,2 C 7,8 C 77 % 1031,6 hPa 0,0 l/m 2 min 0 min 0,0 UV-I 223 W/m 0,0 km/h (0 Bft)
13.11.2013 14:34 10,2 C 7,8 C 77 % 1031,6 hPa 0,0 l/m 2 min 0 min 0,0 UV-I 223 W/m 2,6 km/h (1 Bft)
13.11.2013 14:36 10,2 C 7,8 C 77 % 1031,6 hPa 0,0 l/m 2 min 0 min 0,0 UV-I 216 W/m 2,6 km/h (1 Bft)
13.11.2013 14:38 10,2 C 7,8 C 76 % 1031,6 hPa 0,0 l/m 2 min 0 min 0,0 UV-I 213 W/m 2,6 km/h (1 Bft)
13.11.2013 14:40 10,2 C 7,8 C 79 % 1031,6 hPa 0,0 l/m 2 min 0 min 0,0 UV-I 209 W/m 0,0 km/h (0 Bft)
13.11.2013 14:42 10,2 C 7,2 C 76 % 1031,6 hPa 0,0 l/m 2 min 0 min 0,0 UV-I 204 W/m 5,1 km/h (1 Bft)
13.11.2013 14:44 10,2 C 7,2 C 77 % 1031,6 hPa 0,0 l/m 2 min 0 min 0,0 UV-I 199 W/m 2,6 km/h (1 Bft)
13.11.2013 14:46 10,1 C 7,2 C 76 % 1031,6 hPa 0,0 l/m 2 min 0 min 0,0 UV-I 197 W/m 5,1 km/h (1 Bft)
13.11.2013 14:48 10,1 C 7,2 C 77 % 1031,6 hPa 0,0 l/m 2 min 0 min 0,0 UV-I 195 W/m 7,7 km/h (2 Bft)
13.11.2013 14:50 9,9 C 7,2 C 78 % 1031,6 hPa 0,0 l/m 2 min 0 min 0,0 UV-I 190 W/m 5,1 km/h (1 Bft)
13.11.2013 14:52 9,9 C 7,2 C 77 % 1031,5 hPa 0,0 l/m 2 min 0 min 0,0 UV-I 186 W/m 0,0 km/h (0 Bft)
13.11.2013 14:54 9,8 C 7,2 C 78 % 1031,4 hPa 0,0 l/m 2 min 0 min 0,0 UV-I 186 W/m 0,0 km/h (0 Bft)
13.11.2013 14:56 9,9 C 7,2 C 78 % 1031,5 hPa 0,0 l/m 2 min 0 min 0,0 UV-I 185 W/m 0,0 km/h (0 Bft)
13.11.2013 14:58 9,8 C 7,2 C 79 % 1031,4 hPa 0,0 l/m 2 min 0 min 0,0 UV-I 179 W/m 0,0 km/h (0 Bft)
13.11.2013 15:00 9,8 C 7,2 C 80 % 1031,4 hPa 0,0 l/m 2 min 0 min 0,0 UV-I 174 W/m 0,0 km/h (0 Bft)
13.11.2013 15:02 9,8 C 7,2 C 78 % 1031,3 hPa 0,0 l/m 2 min 0 min 0,0 UV-I 169 W/m 0,0 km/h (0 Bft)
13.11.2013 15:04 9,8 C 7,2 C 78 % 1031,3 hPa 0,0 l/m 2 min 0 min 0,0 UV-I 169 W/m 0,0 km/h (0 Bft)
13.11.2013 15:06 9,7 C 7,2 C 79 % 1031,3 hPa 0,0 l/m 2 min 0 min 0,0 UV-I 165 W/m 0,0 km/h (0 Bft)
13.11.2013 15:08 9,7 C 7,2 C 79 % 1031,3 hPa 0,0 l/m 2 min 0 min 0,0 UV-I 160 W/m 0,0 km/h (0 Bft)
13.11.2013 15:10 9,7 C 7,2 C 78 % 1031,2 hPa 0,0 l/m 2 min 0 min 0,0 UV-I 155 W/m 0,0 km/h (0 Bft)
13.11.2013 15:12 9,6 C 7,2 C 79 % 1031,2 hPa 0,0 l/m 2 min 0 min 0,0 UV-I 148 W/m 0,0 km/h (0 Bft)
13.11.2013 15:14 9,6 C 7,2 C 78 % 1031,2 hPa 0,0 l/m 2 min 0 min 0,0 UV-I 144 W/m 0,0 km/h (0 Bft)
13.11.2013 15:16 9,7 C 7,2 C 78 % 1031,2 hPa 0,0 l/m 2 min 0 min 0,0 UV-I 141 W/m 0,0 km/h (0 Bft)
13.11.2013 15:18 9,6 C 7,2 C 78 % 1031,1 hPa 0,0 l/m 2 min 0 min 0,0 UV-I 137 W/m 0,0 km/h (0 Bft)
13.11.2013 15:20 9,6 C 7,2 C 78 % 1031,1 hPa 0,0 l/m 2 min 0 min 0,0 UV-I 105 W/m 0,0 km/h (0 Bft)
13.11.2013 15:22 9,6 C 6,7 C 79 % 1031,1 hPa 0,0 l/m 0 min 0 min 0,0 UV-I 74 W/m 0,0 km/h (0 Bft)
13.11.2013 15:24 9,5 C 6,7 C 80 % 1031,1 hPa 0,0 l/m 2 min 0 min 0,0 UV-I 127 W/m 0,0 km/h (0 Bft)
13.11.2013 15:26 9,6 C 6,7 C 80 % 1031,1 hPa 0,0 l/m 2 min 0 min 0,0 UV-I 114 W/m 0,0 km/h (0 Bft)
13.11.2013 15:28 9,5 C 6,7 C 80 % 1031,1 hPa 0,0 l/m 0 min 0 min 0,0 UV-I 84 W/m 0,0 km/h (0 Bft)
13.11.2013 15:30 9,4 C 6,7 C 80 % 1031,1 hPa 0,0 l/m 0 min 0 min 0,0 UV-I 49 W/m 0,0 km/h (0 Bft)
13.11.2013 15:32 9,4 C 6,7 C 80 % 1031,1 hPa 0,0 l/m 0 min 0 min 0,0 UV-I 47 W/m 0,0 km/h (0 Bft)
13.11.2013 15:34 9,3 C 6,7 C 80 % 1031,0 hPa 0,0 l/m 0 min 0 min 0,0 UV-I 47 W/m 0,0 km/h (0 Bft)
13.11.2013 15:36 9,3 C 6,7 C 81 % 1031,0 hPa 0,0 l/m 0 min 0 min 0,0 UV-I 46 W/m 0,0 km/h (0 Bft)
13.11.2013 15:38 9,2 C 6,7 C 81 % 1031,0 hPa 0,0 l/m 0 min 0 min 0,0 UV-I 46 W/m 0,0 km/h (0 Bft)
13.11.2013 15:40 9,2 C 6,7 C 81 % 1031,0 hPa 0,0 l/m 0 min 0 min 0,0 UV-I 46 W/m 0,0 km/h (0 Bft)
13.11.2013 15:42 9,2 C 6,7 C 81 % 1031,0 hPa 0,0 l/m 0 min 0 min 0,0 UV-I 47 W/m 0,0 km/h (0 Bft)
13.11.2013 15:44 9,2 C 6,7 C 81 % 1031,0 hPa 0,0 l/m 0 min 0 min 0,0 UV-I 46 W/m 0,0 km/h (0 Bft)
13.11.2013 15:46 9,1 C 6,7 C 82 % 1031,0 hPa 0,0 l/m 0 min 0 min 0,0 UV-I 46 W/m 0,0 km/h (0 Bft)
13.11.2013 15:48 9,1 C 6,7 C 82 % 1031,0 hPa 0,0 l/m 0 min 0 min 0,0 UV-I 44 W/m 0,0 km/h (0 Bft)
13.11.2013 15:50 9,0 C 6,7 C 82 % 1031,0 hPa 0,0 l/m 0 min 0 min 0,0 UV-I 44 W/m 0,0 km/h (0 Bft)
13.11.2013 15:52 9,0 C 6,7 C 82 % 1031,0 hPa 0,0 l/m 0 min 0 min 0,0 UV-I 44 W/m 0,0 km/h (0 Bft)
13.11.2013 15:54 8,9 C 6,1 C 82 % 1031,0 hPa 0,0 l/m 0 min 0 min 0,0 UV-I 39 W/m 0,0 km/h (0 Bft)
13.11.2013 15:56 8,9 C 6,1 C 83 % 1031,0 hPa 0,0 l/m 0 min 0 min 0,0 UV-I 37 W/m 0,0 km/h (0 Bft)
13.11.2013 15:58 8,9 C 6,1 C 83 % 1030,9 hPa 0,0 l/m 0 min 0 min 0,0 UV-I 33 W/m 0,0 km/h (0 Bft)
13.11.2013 16:00 8,9 C 6,1 C 83 % 1030,9 hPa 0,0 l/m 0 min 0 min 0,0 UV-I 32 W/m 0,0 km/h (0 Bft)
13.11.2013 16:02 8,9 C 6,1 C 83 % 1030,9 hPa 0,0 l/m 0 min 0 min 0,0 UV-I 32 W/m 0,0 km/h (0 Bft)
13.11.2013 16:04 8,9 C 6,1 C 83 % 1030,9 hPa 0,0 l/m 0 min 0 min 0,0 UV-I 28 W/m 0,0 km/h (0 Bft)
13.11.2013 16:06 8,9 C 6,1 C 83 % 1030,9 hPa 0,0 l/m 0 min 0 min 0,0 UV-I 26 W/m 0,0 km/h (0 Bft)
13.11.2013 16:08 8,8 C 5,6 C 84 % 1030,9 hPa 0,0 l/m 0 min 0 min 0,0 UV-I 26 W/m 0,0 km/h (0 Bft)
13.11.2013 16:10 8,7 C 5,6 C 84 % 1030,9 hPa 0,0 l/m 0 min 0 min 0,0 UV-I 25 W/m 0,0 km/h (0 Bft)
13.11.2013 16:12 8,7 C 5,6 C 84 % 1030,9 hPa 0,0 l/m 0 min 0 min 0,0 UV-I 25 W/m 0,0 km/h (0 Bft)
13.11.2013 16:14 8,6 C 5,6 C 84 % 1030,9 hPa 0,0 l/m 0 min 0 min 0,0 UV-I 25 W/m 0,0 km/h (0 Bft)
13.11.2013 16:16 8,6 C 5,6 C 84 % 1030,8 hPa 0,0 l/m 0 min 0 min 0,0 UV-I 23 W/m 0,0 km/h (0 Bft)
13.11.2013 16:18 8,5 C 5,6 C 84 % 1030,8 hPa 0,0 l/m 0 min 0 min 0,0 UV-I 23 W/m 0,0 km/h (0 Bft)
13.11.2013 16:20 8,4 C 5,6 C 84 % 1030,8 hPa 0,0 l/m 0 min 0 min 0,0 UV-I 21 W/m 0,0 km/h (0 Bft)
13.11.2013 16:22 8,4 C 5,6 C 85 % 1030,8 hPa 0,0 l/m 0 min 0 min 0,0 UV-I 21 W/m 0,0 km/h (0 Bft)
13.11.2013 16:24 8,3 C 5,6 C 85 % 1030,8 hPa 0,0 l/m 0 min 0 min 0,0 UV-I 19 W/m 0,0 km/h (0 Bft)
13.11.2013 16:26 8,2 C 5,0 C 85 % 1030,8 hPa 0,0 l/m 0 min 0 min 0,0 UV-I 18 W/m 0,0 km/h (0 Bft)
13.11.2013 16:28 8,2 C 5,0 C 85 % 1030,7 hPa 0,0 l/m 0 min 0 min 0,0 UV-I 16 W/m 0,0 km/h (0 Bft)
13.11.2013 16:30 8,1 C 5,0 C 85 % 1030,7 hPa 0,0 l/m 0 min 0 min 0,0 UV-I 14 W/m 0,0 km/h (0 Bft)
13.11.2013 16:32 8,0 C 5,0 C 86 % 1030,7 hPa 0,0 l/m 0 min 0 min 0,0 UV-I 14 W/m 0,0 km/h (0 Bft)
13.11.2013 16:34 7,9 C 5,0 C 86 % 1030,6 hPa 0,0 l/m 0 min 0 min 0,0 UV-I 12 W/m 0,0 km/h (0 Bft)
13.11.2013 16:36 7,9 C 5,0 C 86 % 1030,6 hPa 0,0 l/m 0 min 0 min 0,0 UV-I 11 W/m 0,0 km/h (0 Bft)
13.11.2013 16:38 7,8 C 5,0 C 87 % 1030,6 hPa 0,0 l/m 0 min 0 min 0,0 UV-I 11 W/m 0,0 km/h (0 Bft)
13.11.2013 16:40 7,8 C 5,0 C 87 % 1030,7 hPa 0,0 l/m 0 min 0 min 0,0 UV-I 9 W/m 0,0 km/h (0 Bft)
13.11.2013 16:42 7,7 C 5,0 C 87 % 1030,6 hPa 0,0 l/m 0 min 0 min 0,0 UV-I 7 W/m 0,0 km/h (0 Bft)
13.11.2013 16:44 7,6 C 5,0 C 87 % 1030,6 hPa 0,0 l/m 0 min 0 min 0,0 UV-I 7 W/m 0,0 km/h (0 Bft)
13.11.2013 16:46 7,4 C 4,4 C 87 % 1030,6 hPa 0,0 l/m 0 min 0 min 0,0 UV-I 7 W/m 0,0 km/h (0 Bft)
13.11.2013 16:48 7,3 C 4,4 C 88 % 1030,5 hPa 0,0 l/m 0 min 0 min 0,0 UV-I 5 W/m 0,0 km/h (0 Bft)
13.11.2013 16:50 7,2 C 4,4 C 88 % 1030,5 hPa 0,0 l/m 0 min 0 min 0,0 UV-I 5 W/m 0,0 km/h (0 Bft)
13.11.2013 16:52 7,1 C 4,4 C 88 % 1030,5 hPa 0,0 l/m 0 min 0 min 0,0 UV-I 5 W/m 0,0 km/h (0 Bft)
13.11.2013 16:54 7,1 C 4,4 C 88 % 1030,5 hPa 0,0 l/m 0 min 0 min 0,0 UV-I 5 W/m 0,0 km/h (0 Bft)
13.11.2013 16:56 7,0 C 4,4 C 89 % 1030,5 hPa 0,0 l/m 0 min 0 min 0,0 UV-I 0 W/m 0,0 km/h (0 Bft)
13.11.2013 16:58 6,9 C 4,4 C 89 % 1030,5 hPa 0,0 l/m 0 min 0 min 0,0 UV-I 0 W/m 0,0 km/h (0 Bft)
13.11.2013 17:00 6,8 C 4,4 C 89 % 1030,5 hPa 0,0 l/m 0 min 0 min 0,0 UV-I 0 W/m 0,0 km/h (0 Bft)
13.11.2013 17:02 6,8 C 3,9 C 90 % 1030,5 hPa 0,0 l/m 0 min 0 min 0,0 UV-I 0 W/m 0,0 km/h (0 Bft)
13.11.2013 17:04 6,7 C 3,9 C 90 % 1030,5 hPa 0,0 l/m 0 min 0 min 0,0 UV-I 0 W/m 0,0 km/h (0 Bft)
13.11.2013 17:06 6,6 C 3,9 C 90 % 1030,5 hPa 0,0 l/m 0 min 0 min 0,0 UV-I 0 W/m 0,0 km/h (0 Bft)
13.11.2013 17:08 6,6 C 3,9 C 90 % 1030,4 hPa 0,0 l/m 0 min 0 min 0,0 UV-I 0 W/m 0,0 km/h (0 Bft)
13.11.2013 17:10 6,4 C 3,9 C 90 % 1030,4 hPa 0,0 l/m 0 min 0 min 0,0 UV-I 0 W/m 0,0 km/h (0 Bft)
13.11.2013 17:12 6,3 C 3,9 C 90 % 1030,4 hPa 0,0 l/m 0 min 0 min 0,0 UV-I 0 W/m 0,0 km/h (0 Bft)
13.11.2013 17:14 6,2 C 3,9 C 91 % 1030,4 hPa 0,0 l/m 0 min 0 min 0,0 UV-I 0 W/m 0,0 km/h (0 Bft)
13.11.2013 17:16 6,3 C 3,9 C 91 % 1030,4 hPa 0,0 l/m 0 min 0 min 0,0 UV-I 0 W/m 0,0 km/h (0 Bft)
13.11.2013 17:18 6,3 C 3,9 C 91 % 1030,4 hPa 0,0 l/m 0 min 0 min 0,0 UV-I 0 W/m 0,0 km/h (0 Bft)
13.11.2013 17:20 6,2 C 3,9 C 92 % 1030,3 hPa 0,0 l/m 0 min 0 min 0,0 UV-I 0 W/m 0,0 km/h (0 Bft)
13.11.2013 17:22 6,2 C 3,9 C 92 % 1030,3 hPa 0,0 l/m 0 min 0 min 0,0 UV-I 0 W/m 0,0 km/h (0 Bft)
13.11.2013 17:24 6,1 C 3,9 C 92 % 1030,3 hPa 0,0 l/m 0 min 0 min 0,0 UV-I 0 W/m 0,0 km/h (0 Bft)
13.11.2013 17:26 6,2 C 3,9 C 92 % 1030,3 hPa 0,0 l/m 0 min 0 min 0,0 UV-I 0 W/m 0,0 km/h (0 Bft)
13.11.2013 17:28 6,2 C 3,9 C 92 % 1030,3 hPa 0,0 l/m 0 min 0 min 0,0 UV-I 0 W/m 0,0 km/h (0 Bft)
13.11.2013 17:30 6,2 C 3,9 C 92 % 1030,3 hPa 0,0 l/m 0 min 0 min 0,0 UV-I 0 W/m 0,0 km/h (0 Bft)
13.11.2013 17:32 6,3 C 3,9 C 93 % 1030,3 hPa 0,0 l/m 0 min 0 min 0,0 UV-I 0 W/m 2,6 km/h (1 Bft)
13.11.2013 17:34 6,3 C 3,9 C 93 % 1030,4 hPa 0,0 l/m 0 min 0 min 0,0 UV-I 0 W/m 0,0 km/h (0 Bft)
13.11.2013 17:36 6,4 C 3,9 C 93 % 1030,3 hPa 0,0 l/m 0 min 0 min 0,0 UV-I 0 W/m 2,6 km/h (1 Bft)
13.11.2013 17:38 6,4 C 3,9 C 93 % 1030,3 hPa 0,0 l/m 0 min 0 min 0,0 UV-I 0 W/m 0,0 km/h (0 Bft)
13.11.2013 17:40 6,4 C 3,9 C 93 % 1030,3 hPa 0,0 l/m 0 min 0 min 0,0 UV-I 0 W/m 0,0 km/h (0 Bft)
13.11.2013 17:42 6,4 C 3,9 C 93 % 1030,3 hPa 0,0 l/m 0 min 0 min 0,0 UV-I 0 W/m 0,0 km/h (0 Bft)
13.11.2013 17:44 6,4 C 3,9 C 93 % 1030,3 hPa 0,0 l/m 0 min 0 min 0,0 UV-I 0 W/m 0,0 km/h (0 Bft)
13.11.2013 17:46 6,4 C 3,9 C 93 % 1030,3 hPa 0,0 l/m 0 min 0 min 0,0 UV-I 0 W/m 0,0 km/h (0 Bft)
13.11.2013 17:48 6,4 C 3,9 C 93 % 1030,2 hPa 0,0 l/m 0 min 0 min 0,0 UV-I 0 W/m 0,0 km/h (0 Bft)
13.11.2013 17:50 6,3 C 3,9 C 93 % 1030,3 hPa 0,0 l/m 0 min 0 min 0,0 UV-I 0 W/m 0,0 km/h (0 Bft)
13.11.2013 17:52 6,2 C 3,9 C 93 % 1030,3 hPa 0,0 l/m 0 min 0 min 0,0 UV-I 0 W/m 0,0 km/h (0 Bft)
13.11.2013 17:54 6,2 C 3,9 C 93 % 1030,2 hPa 0,0 l/m 0 min 0 min 0,0 UV-I 0 W/m 0,0 km/h (0 Bft)
13.11.2013 17:56 6,2 C 3,9 C 93 % 1030,3 hPa 0,0 l/m 0 min 0 min 0,0 UV-I 0 W/m 0,0 km/h (0 Bft)
13.11.2013 17:58 6,1 C 3,9 C 93 % 1030,2 hPa 0,0 l/m 0 min 0 min 0,0 UV-I 0 W/m 0,0 km/h (0 Bft)
13.11.2013 18:00 6,1 C 3,9 C 93 % 1030,2 hPa 0,0 l/m 0 min 0 min 0,0 UV-I 0 W/m 0,0 km/h (0 Bft)
13.11.2013 18:02 6,0 C 3,9 C 93 % 1030,2 hPa 0,0 l/m 0 min 0 min 0,0 UV-I 0 W/m 0,0 km/h (0 Bft)
13.11.2013 18:04 6,0 C 3,9 C 94 % 1030,2 hPa 0,0 l/m 0 min 0 min 0,0 UV-I 0 W/m 0,0 km/h (0 Bft)
13.11.2013 18:06 5,9 C 3,9 C 94 % 1030,2 hPa 0,0 l/m 0 min 0 min 0,0 UV-I 0 W/m 0,0 km/h (0 Bft)
13.11.2013 18:08 5,9 C 3,9 C 94 % 1030,2 hPa 0,0 l/m 0 min 0 min 0,0 UV-I 0 W/m 0,0 km/h (0 Bft)
13.11.2013 18:10 5,8 C 3,3 C 94 % 1030,2 hPa 0,0 l/m 0 min 0 min 0,0 UV-I 0 W/m 0,0 km/h (0 Bft)
13.11.2013 18:12 5,8 C 3,3 C 94 % 1030,2 hPa 0,0 l/m 0 min 0 min 0,0 UV-I 0 W/m 0,0 km/h (0 Bft)
13.11.2013 18:14 5,7 C 3,3 C 94 % 1030,2 hPa 0,0 l/m 0 min 0 min 0,0 UV-I 0 W/m 0,0 km/h (0 Bft)
13.11.2013 18:16 5,8 C 3,3 C 94 % 1030,1 hPa 0,0 l/m 0 min 0 min 0,0 UV-I 0 W/m 0,0 km/h (0 Bft)
13.11.2013 18:18 5,7 C 3,3 C 94 % 1030,0 hPa 0,0 l/m 0 min 0 min 0,0 UV-I 0 W/m 0,0 km/h (0 Bft)
13.11.2013 18:20 5,7 C 3,3 C 94 % 1030,1 hPa 0,0 l/m 0 min 0 min 0,0 UV-I 0 W/m 0,0 km/h (0 Bft)
13.11.2013 18:22 5,6 C 3,3 C 94 % 1030,0 hPa 0,0 l/m 0 min 0 min 0,0 UV-I 0 W/m 0,0 km/h (0 Bft)
13.11.2013 18:24 5,6 C 3,3 C 94 % 1030,0 hPa 0,0 l/m 0 min 0 min 0,0 UV-I 0 W/m 0,0 km/h (0 Bft)
13.11.2013 18:25 5,5 C 3,3 C 95 % 1030,0 hPa 0,0 l/m 0 min 0 min 0,0 UV-I 0 W/m 0,0 km/h (0 Bft)
13.11.2013 18:28 5,5 C 3,3 C 95 % 1030,0 hPa 0,0 l/m 0 min 0 min 0,0 UV-I 0 W/m 0,0 km/h (0 Bft)
13.11.2013 18:30 5,5 C 3,3 C 95 % 1029,9 hPa 0,0 l/m 0 min 0 min 0,0 UV-I 0 W/m 0,0 km/h (0 Bft)
13.11.2013 18:32 5,5 C 3,3 C 95 % 1030,1 hPa 0,0 l/m 0 min 0 min 0,0 UV-I 0 W/m 0,0 km/h (0 Bft)
13.11.2013 18:34 5,4 C 3,3 C 95 % 1030,1 hPa 0,0 l/m 0 min 0 min 0,0 UV-I 0 W/m 0,0 km/h (0 Bft)
13.11.2013 18:36 5,3 C 3,3 C 95 % 1030,1 hPa 0,0 l/m 0 min 0 min 0,0 UV-I 0 W/m 0,0 km/h (0 Bft)
13.11.2013 18:38 5,3 C 3,3 C 95 % 1029,9 hPa 0,0 l/m 0 min 0 min 0,0 UV-I 0 W/m 0,0 km/h (0 Bft)
13.11.2013 18:40 5,3 C 3,3 C 95 % 1030,0 hPa 0,0 l/m 0 min 0 min 0,0 UV-I 0 W/m 0,0 km/h (0 Bft)
13.11.2013 18:42 5,2 C 2,8 C 95 % 1029,9 hPa 0,0 l/m 0 min 0 min 0,0 UV-I 0 W/m 0,0 km/h (0 Bft)
13.11.2013 18:44 5,2 C 2,8 C 95 % 1029,9 hPa 0,0 l/m 0 min 0 min 0,0 UV-I 0 W/m 0,0 km/h (0 Bft)
13.11.2013 18:46 4,9 C 2,8 C 95 % 1029,9 hPa 0,0 l/m 0 min 0 min 0,0 UV-I 0 W/m 0,0 km/h (0 Bft)
13.11.2013 18:48 4,9 C 2,8 C 95 % 1029,9 hPa 0,0 l/m 0 min 0 min 0,0 UV-I 0 W/m 0,0 km/h (0 Bft)
13.11.2013 18:50 4,8 C 2,8 C 95 % 1030,0 hPa 0,0 l/m 0 min 0 min 0,0 UV-I 0 W/m 0,0 km/h (0 Bft)
13.11.2013 18:52 4,8 C 2,8 C 95 % 1030,0 hPa 0,0 l/m 0 min 0 min 0,0 UV-I 0 W/m 0,0 km/h (0 Bft)
13.11.2013 18:54 4,7 C 2,8 C 95 % 1029,9 hPa 0,0 l/m 0 min 0 min 0,0 UV-I 0 W/m 0,0 km/h (0 Bft)
13.11.2013 18:56 4,7 C 2,8 C 95 % 1029,9 hPa 0,0 l/m 0 min 0 min 0,0 UV-I 0 W/m 0,0 km/h (0 Bft)
13.11.2013 18:58 4,6 C 2,8 C 95 % 1029,8 hPa 0,0 l/m 0 min 0 min 0,0 UV-I 0 W/m 0,0 km/h (0 Bft)
13.11.2013 19:00 4,5 C 2,8 C 96 % 1029,8 hPa 0,0 l/m 0 min 0 min 0,0 UV-I 0 W/m 0,0 km/h (0 Bft)
13.11.2013 19:02 4,4 C 2,8 C 95 % 1029,8 hPa 0,0 l/m 0 min 0 min 0,0 UV-I 0 W/m 0,0 km/h (0 Bft)
13.11.2013 19:04 4,3 C 2,8 C 95 % 1029,8 hPa 0,0 l/m 0 min 0 min 0,0 UV-I 0 W/m 0,0 km/h (0 Bft)
13.11.2013 19:06 4,3 C 2,2 C 96 % 1029,8 hPa 0,0 l/m 0 min 0 min 0,0 UV-I 0 W/m 0,0 km/h (0 Bft)
13.11.2013 19:08 4,3 C 2,2 C 96 % 1029,8 hPa 0,0 l/m 0 min 0 min 0,0 UV-I 0 W/m 0,0 km/h (0 Bft)
13.11.2013 19:10 4,3 C 2,2 C 96 % 1029,7 hPa 0,0 l/m 0 min 0 min 0,0 UV-I 0 W/m 0,0 km/h (0 Bft)
13.11.2013 19:12 4,2 C 2,2 C 96 % 1029,8 hPa 0,0 l/m 0 min 0 min 0,0 UV-I 0 W/m 0,0 km/h (0 Bft)
13.11.2013 19:14 4,2 C 2,2 C 96 % 1029,7 hPa 0,0 l/m 0 min 0 min 0,0 UV-I 0 W/m 0,0 km/h (0 Bft)
13.11.2013 19:16 4,2 C 2,2 C 96 % 1029,7 hPa 0,0 l/m 0 min 0 min 0,0 UV-I 0 W/m 0,0 km/h (0 Bft)
13.11.2013 19:18 4,2 C 2,2 C 96 % 1029,7 hPa 0,0 l/m 0 min 0 min 0,0 UV-I 0 W/m 0,0 km/h (0 Bft)
13.11.2013 19:20 4,2 C 2,2 C 96 % 1029,7 hPa 0,0 l/m 0 min 0 min 0,0 UV-I 0 W/m 0,0 km/h (0 Bft)
13.11.2013 19:22 4,2 C 2,2 C 96 % 1029,8 hPa 0,0 l/m 0 min 0 min 0,0 UV-I 0 W/m 0,0 km/h (0 Bft)
13.11.2013 19:24 4,2 C 2,2 C 96 % 1029,7 hPa 0,0 l/m 0 min 0 min 0,0 UV-I 0 W/m 0,0 km/h (0 Bft)
13.11.2013 19:26 4,2 C 2,2 C 96 % 1029,7 hPa 0,0 l/m 0 min 0 min 0,0 UV-I 0 W/m 0,0 km/h (0 Bft)
13.11.2013 19:28 4,2 C 2,2 C 96 % 1029,7 hPa 0,0 l/m 0 min 0 min 0,0 UV-I 0 W/m 0,0 km/h (0 Bft)
13.11.2013 19:30 4,2 C 2,2 C 96 % 1029,8 hPa 0,0 l/m 0 min 0 min 0,0 UV-I 0 W/m 0,0 km/h (0 Bft)
13.11.2013 19:32 4,2 C 2,2 C 96 % 1029,7 hPa 0,0 l/m 0 min 0 min 0,0 UV-I 0 W/m 0,0 km/h (0 Bft)
13.11.2013 19:34 4,2 C 2,2 C 96 % 1029,7 hPa 0,0 l/m 0 min 0 min 0,0 UV-I 0 W/m 0,0 km/h (0 Bft)
13.11.2013 19:36 4,2 C 2,2 C 96 % 1029,6 hPa 0,0 l/m 0 min 0 min 0,0 UV-I 0 W/m 0,0 km/h (0 Bft)
13.11.2013 19:38 4,2 C 2,2 C 96 % 1029,6 hPa 0,0 l/m 0 min 0 min 0,0 UV-I 0 W/m 0,0 km/h (0 Bft)
13.11.2013 19:40 4,2 C 2,2 C 96 % 1029,6 hPa 0,0 l/m 0 min 0 min 0,0 UV-I 0 W/m 0,0 km/h (0 Bft)
13.11.2013 19:42 4,2 C 2,2 C 97 % 1029,6 hPa 0,0 l/m 0 min 0 min 0,0 UV-I 0 W/m 0,0 km/h (0 Bft)
13.11.2013 19:44 4,1 C 2,2 C 97 % 1029,6 hPa 0,0 l/m 0 min 0 min 0,0 UV-I 0 W/m 0,0 km/h (0 Bft)
13.11.2013 19:46 4,1 C 2,2 C 97 % 1029,6 hPa 0,0 l/m 0 min 0 min 0,0 UV-I 0 W/m 0,0 km/h (0 Bft)
13.11.2013 19:48 4,1 C 2,2 C 97 % 1029,6 hPa 0,0 l/m 0 min 0 min 0,0 UV-I 0 W/m 0,0 km/h (0 Bft)
13.11.2013 19:50 4,1 C 2,2 C 97 % 1029,6 hPa 0,0 l/m 0 min 0 min 0,0 UV-I 0 W/m 0,0 km/h (0 Bft)
13.11.2013 19:52 4,1 C 2,2 C 97 % 1029,6 hPa 0,0 l/m 0 min 0 min 0,0 UV-I 0 W/m 0,0 km/h (0 Bft)
13.11.2013 19:54 4,1 C 2,2 C 97 % 1029,6 hPa 0,0 l/m 0 min 0 min 0,0 UV-I 0 W/m 0,0 km/h (0 Bft)
13.11.2013 19:56 4,1 C 2,2 C 97 % 1029,5 hPa 0,0 l/m 0 min 0 min 0,0 UV-I 0 W/m 0,0 km/h (0 Bft)
13.11.2013 19:58 4,0 C 2,2 C 97 % 1029,6 hPa 0,0 l/m 0 min 0 min 0,0 UV-I 0 W/m 0,0 km/h (0 Bft)
13.11.2013 20:00 4,0 C 2,2 C 97 % 1029,6 hPa 0,0 l/m 0 min 0 min 0,0 UV-I 0 W/m 0,0 km/h (0 Bft)
13.11.2013 20:02 4,0 C 2,2 C 97 % 1029,5 hPa 0,0 l/m 0 min 0 min 0,0 UV-I 0 W/m 0,0 km/h (0 Bft)
13.11.2013 20:04 4,0 C 2,2 C 97 % 1029,5 hPa 0,0 l/m 0 min 0 min 0,0 UV-I 0 W/m 0,0 km/h (0 Bft)
13.11.2013 20:06 4,0 C 2,2 C 97 % 1029,5 hPa 0,0 l/m 0 min 0 min 0,0 UV-I 0 W/m 0,0 km/h (0 Bft)
13.11.2013 20:08 4,0 C 2,2 C 97 % 1029,5 hPa 0,0 l/m 0 min 0 min 0,0 UV-I 0 W/m 0,0 km/h (0 Bft)
13.11.2013 20:10 4,0 C 2,2 C 97 % 1029,4 hPa 0,0 l/m 0 min 0 min 0,0 UV-I 0 W/m 0,0 km/h (0 Bft)
13.11.2013 20:12 3,9 C 2,2 C 97 % 1029,4 hPa 0,0 l/m 0 min 0 min 0,0 UV-I 0 W/m 0,0 km/h (0 Bft)
13.11.2013 20:14 3,9 C 2,2 C 97 % 1029,4 hPa 0,0 l/m 0 min 0 min 0,0 UV-I 0 W/m 0,0 km/h (0 Bft)
13.11.2013 20:16 3,9 C 2,2 C 97 % 1029,4 hPa 0,0 l/m 0 min 0 min 0,0 UV-I 0 W/m 0,0 km/h (0 Bft)
13.11.2013 20:18 4,0 C 2,2 C 97 % 1029,4 hPa 0,0 l/m 0 min 0 min 0,0 UV-I 0 W/m 0,0 km/h (0 Bft)
13.11.2013 20:20 4,0 C 2,2 C 97 % 1029,4 hPa 0,0 l/m 0 min 0 min 0,0 UV-I 0 W/m 0,0 km/h (0 Bft)
13.11.2013 20:22 4,0 C 2,2 C 97 % 1029,3 hPa 0,0 l/m 0 min 0 min 0,0 UV-I 0 W/m 0,0 km/h (0 Bft)
13.11.2013 20:24 4,0 C 2,2 C 97 % 1029,3 hPa 0,0 l/m 0 min 0 min 0,0 UV-I 0 W/m 0,0 km/h (0 Bft)
13.11.2013 20:26 4,0 C 2,2 C 97 % 1029,3 hPa 0,0 l/m 0 min 0 min 0,0 UV-I 0 W/m 0,0 km/h (0 Bft)
13.11.2013 20:28 4,0 C 2,2 C 97 % 1029,3 hPa 0,0 l/m 0 min 0 min 0,0 UV-I 0 W/m 0,0 km/h (0 Bft)
13.11.2013 20:30 3,9 C 2,2 C 97 % 1029,3 hPa 0,0 l/m 0 min 0 min 0,0 UV-I 0 W/m 0,0 km/h (0 Bft)
13.11.2013 20:32 3,9 C 2,2 C 97 % 1029,3 hPa 0,0 l/m 0 min 0 min 0,0 UV-I 0 W/m 0,0 km/h (0 Bft)
13.11.2013 20:34 3,8 C 2,2 C 97 % 1029,3 hPa 0,0 l/m 0 min 0 min 0,0 UV-I 0 W/m 0,0 km/h (0 Bft)
13.11.2013 20:36 3,8 C 2,2 C 97 % 1029,3 hPa 0,0 l/m 0 min 0 min 0,0 UV-I 0 W/m 0,0 km/h (0 Bft)
13.11.2013 20:38 3,7 C 2,2 C 97 % 1029,3 hPa 0,0 l/m 0 min 0 min 0,0 UV-I 0 W/m 0,0 km/h (0 Bft)
13.11.2013 20:40 3,7 C 2,2 C 97 % 1029,3 hPa 0,0 l/m 0 min 0 min 0,0 UV-I 0 W/m 0,0 km/h (0 Bft)
13.11.2013 20:42 3,7 C 2,2 C 97 % 1029,3 hPa 0,0 l/m 0 min 0 min 0,0 UV-I 0 W/m 0,0 km/h (0 Bft)
13.11.2013 20:44 3,7 C 2,2 C 97 % 1029,3 hPa 0,0 l/m 0 min 0 min 0,0 UV-I 0 W/m 0,0 km/h (0 Bft)
13.11.2013 20:46 3,7 C 2,2 C 97 % 1029,3 hPa 0,0 l/m 0 min 0 min 0,0 UV-I 0 W/m 0,0 km/h (0 Bft)
13.11.2013 20:48 3,7 C 2,2 C 97 % 1029,2 hPa 0,0 l/m 0 min 0 min 0,0 UV-I 0 W/m 0,0 km/h (0 Bft)
13.11.2013 20:50 3,7 C 1,7 C 97 % 1029,2 hPa 0,0 l/m 0 min 0 min 0,0 UV-I 0 W/m 0,0 km/h (0 Bft)
13.11.2013 20:52 3,7 C 1,7 C 97 % 1029,1 hPa 0,0 l/m 0 min 0 min 0,0 UV-I 0 W/m 0,0 km/h (0 Bft)
13.11.2013 20:54 3,7 C 1,7 C 97 % 1029,0 hPa 0,0 l/m 0 min 0 min 0,0 UV-I 0 W/m 0,0 km/h (0 Bft)
13.11.2013 20:56 3,7 C 1,7 C 97 % 1029,1 hPa 0,0 l/m 0 min 0 min 0,0 UV-I 0 W/m 0,0 km/h (0 Bft)
13.11.2013 20:58 3,6 C 1,7 C 97 % 1029,0 hPa 0,0 l/m 0 min 0 min 0,0 UV-I 0 W/m 0,0 km/h (0 Bft)
13.11.2013 21:00 3,6 C 1,7 C 97 % 1029,0 hPa 0,0 l/m 0 min 0 min 0,0 UV-I 0 W/m 0,0 km/h (0 Bft)
13.11.2013 21:02 3,7 C 1,7 C 97 % 1028,9 hPa 0,0 l/m 0 min 0 min 0,0 UV-I 0 W/m 0,0 km/h (0 Bft)
13.11.2013 21:04 3,7 C 1,7 C 97 % 1028,9 hPa 0,0 l/m 0 min 0 min 0,0 UV-I 0 W/m 0,0 km/h (0 Bft)
13.11.2013 21:06 3,7 C 1,7 C 97 % 1028,8 hPa 0,0 l/m 0 min 0 min 0,0 UV-I 0 W/m 0,0 km/h (0 Bft)
13.11.2013 21:08 3,6 C 1,7 C 97 % 1028,9 hPa 0,0 l/m 0 min 0 min 0,0 UV-I 0 W/m 0,0 km/h (0 Bft)
13.11.2013 21:10 3,6 C 1,7 C 97 % 1028,9 hPa 0,0 l/m 0 min 0 min 0,0 UV-I 0 W/m 0,0 km/h (0 Bft)
13.11.2013 21:12 3,6 C 1,7 C 97 % 1028,7 hPa 0,0 l/m 0 min 0 min 0,0 UV-I 0 W/m 0,0 km/h (0 Bft)
13.11.2013 21:14 3,6 C 1,7 C 97 % 1028,7 hPa 0,0 l/m 0 min 0 min 0,0 UV-I 0 W/m 0,0 km/h (0 Bft)
13.11.2013 21:16 3,6 C 1,7 C 97 % 1028,6 hPa 0,0 l/m 0 min 0 min 0,0 UV-I 0 W/m 0,0 km/h (0 Bft)
13.11.2013 21:18 3,6 C 1,7 C 97 % 1028,6 hPa 0,0 l/m 0 min 0 min 0,0 UV-I 0 W/m 0,0 km/h (0 Bft)
13.11.2013 21:20 3,6 C 1,7 C 97 % 1028,6 hPa 0,0 l/m 0 min 0 min 0,0 UV-I 0 W/m 0,0 km/h (0 Bft)
13.11.2013 21:22 3,5 C 1,7 C 97 % 1028,6 hPa 0,0 l/m 0 min 0 min 0,0 UV-I 0 W/m 0,0 km/h (0 Bft)
13.11.2013 21:24 3,5 C 1,7 C 97 % 1028,5 hPa 0,0 l/m 0 min 0 min 0,0 UV-I 0 W/m 0,0 km/h (0 Bft)
13.11.2013 21:26 3,5 C 1,7 C 97 % 1028,5 hPa 0,0 l/m 0 min 0 min 0,0 UV-I 0 W/m 0,0 km/h (0 Bft)
13.11.2013 21:28 3,5 C 1,7 C 97 % 1028,6 hPa 0,0 l/m 0 min 0 min 0,0 UV-I 0 W/m 0,0 km/h (0 Bft)
13.11.2013 21:30 3,6 C 1,7 C 97 % 1028,5 hPa 0,0 l/m 0 min 0 min 0,0 UV-I 0 W/m 0,0 km/h (0 Bft)
13.11.2013 21:32 3,6 C 1,7 C 97 % 1028,6 hPa 0,0 l/m 0 min 0 min 0,0 UV-I 0 W/m 0,0 km/h (0 Bft)
13.11.2013 21:34 3,6 C 1,7 C 97 % 1028,5 hPa 0,0 l/m 0 min 0 min 0,0 UV-I 0 W/m 0,0 km/h (0 Bft)
13.11.2013 21:36 3,5 C 1,7 C 98 % 1028,5 hPa 0,0 l/m 0 min 0 min 0,0 UV-I 0 W/m 0,0 km/h (0 Bft)
13.11.2013 21:38 3,4 C 1,7 C 98 % 1028,4 hPa 0,0 l/m 0 min 0 min 0,0 UV-I 0 W/m 0,0 km/h (0 Bft)
13.11.2013 21:40 3,4 C 1,7 C 98 % 1028,4 hPa 0,0 l/m 0 min 0 min 0,0 UV-I 0 W/m 0,0 km/h (0 Bft)
13.11.2013 21:42 3,4 C 1,7 C 98 % 1028,5 hPa 0,0 l/m 0 min 0 min 0,0 UV-I 0 W/m 0,0 km/h (0 Bft)
13.11.2013 21:44 3,4 C 1,7 C 98 % 1028,5 hPa 0,0 l/m 0 min 0 min 0,0 UV-I 0 W/m 0,0 km/h (0 Bft)
13.11.2013 21:46 3,4 C 1,7 C 98 % 1028,4 hPa 0,0 l/m 0 min 0 min 0,0 UV-I 0 W/m 0,0 km/h (0 Bft)
13.11.2013 21:48 3,3 C 1,7 C 98 % 1028,3 hPa 0,0 l/m 0 min 0 min 0,0 UV-I 0 W/m 0,0 km/h (0 Bft)
13.11.2013 21:50 3,2 C 1,7 C 98 % 1028,3 hPa 0,0 l/m 0 min 0 min 0,0 UV-I 0 W/m 0,0 km/h (0 Bft)
13.11.2013 21:52 3,1 C 1,7 C 98 % 1028,3 hPa 0,0 l/m 0 min 0 min 0,0 UV-I 0 W/m 0,0 km/h (0 Bft)
13.11.2013 21:54 3,0 C 1,7 C 98 % 1028,3 hPa 0,0 l/m 0 min 0 min 0,0 UV-I 0 W/m 0,0 km/h (0 Bft)
13.11.2013 21:56 3,0 C 1,1 C 98 % 1028,3 hPa 0,0 l/m 0 min 0 min 0,0 UV-I 0 W/m 0,0 km/h (0 Bft)
13.11.2013 21:58 3,0 C 1,1 C 98 % 1028,3 hPa 0,0 l/m 0 min 0 min 0,0 UV-I 0 W/m 0,0 km/h (0 Bft)
13.11.2013 22:00 3,0 C 1,1 C 98 % 1028,3 hPa 0,0 l/m 0 min 0 min 0,0 UV-I 0 W/m 0,0 km/h (0 Bft)
13.11.2013 22:02 3,0 C 1,1 C 98 % 1028,2 hPa 0,0 l/m 0 min 0 min 0,0 UV-I 0 W/m 0,0 km/h (0 Bft)
13.11.2013 22:04 2,9 C 1,1 C 98 % 1028,2 hPa 0,0 l/m 0 min 0 min 0,0 UV-I 0 W/m 0,0 km/h (0 Bft)
13.11.2013 22:06 2,9 C 1,1 C 98 % 1028,2 hPa 0,0 l/m 0 min 0 min 0,0 UV-I 0 W/m 0,0 km/h (0 Bft)
13.11.2013 22:08 2,9 C 1,1 C 98 % 1028,1 hPa 0,0 l/m 0 min 0 min 0,0 UV-I 0 W/m 0,0 km/h (0 Bft)
13.11.2013 22:10 2,8 C 1,1 C 98 % 1028,1 hPa 0,0 l/m 0 min 0 min 0,0 UV-I 0 W/m 0,0 km/h (0 Bft)
13.11.2013 22:12 2,7 C 1,1 C 98 % 1028,2 hPa 0,0 l/m 0 min 0 min 0,0 UV-I 0 W/m 0,0 km/h (0 Bft)
13.11.2013 22:14 2,7 C 1,1 C 98 % 1028,2 hPa 0,0 l/m 0 min 0 min 0,0 UV-I 0 W/m 2,6 km/h (1 Bft)
13.11.2013 22:16 2,7 C 1,1 C 98 % 1028,1 hPa 0,0 l/m 0 min 0 min 0,0 UV-I 0 W/m 0,0 km/h (0 Bft)
13.11.2013 22:18 2,7 C 1,1 C 98 % 1028,1 hPa 0,0 l/m 0 min 0 min 0,0 UV-I 0 W/m 0,0 km/h (0 Bft)
13.11.2013 22:20 2,7 C 1,1 C 98 % 1028,2 hPa 0,0 l/m 0 min 0 min 0,0 UV-I 0 W/m 0,0 km/h (0 Bft)
13.11.2013 22:22 2,7 C 1,1 C 98 % 1028,1 hPa 0,0 l/m 0 min 0 min 0,0 UV-I 0 W/m 0,0 km/h (0 Bft)
13.11.2013 22:25 2,7 C 1,1 C 98 % 1028,1 hPa 0,0 l/m 0 min 0 min 0,0 UV-I 0 W/m 0,0 km/h (0 Bft)
13.11.2013 22:30 2,9 C 1,1 C 98 % 1028,0 hPa 0,0 l/m 0 min 0 min 0,0 UV-I 0 W/m 0,0 km/h (0 Bft)
13.11.2013 22:38 2,8 C 1,1 C 98 % 1028,1 hPa 0,0 l/m 0 min 0 min 0,0 UV-I 0 W/m 0,0 km/h (0 Bft)
13.11.2013 22:40 2,8 C 1,1 C 98 % 1028,1 hPa 0,0 l/m 0 min 0 min 0,0 UV-I 0 W/m 0,0 km/h (0 Bft)
13.11.2013 22:42 2,8 C 1,1 C 98 % 1028,0 hPa 0,0 l/m 0 min 0 min 0,0 UV-I 0 W/m 0,0 km/h (0 Bft)
13.11.2013 22:44 2,8 C 1,1 C 98 % 1028,0 hPa 0,0 l/m 0 min 0 min 0,0 UV-I 0 W/m 0,0 km/h (0 Bft)
13.11.2013 22:46 2,7 C 1,1 C 98 % 1028,0 hPa 0,0 l/m 0 min 0 min 0,0 UV-I 0 W/m 0,0 km/h (0 Bft)
13.11.2013 22:48 2,7 C 1,1 C 98 % 1028,0 hPa 0,0 l/m 0 min 0 min 0,0 UV-I 0 W/m 0,0 km/h (0 Bft)
13.11.2013 22:50 2,8 C 1,1 C 98 % 1027,9 hPa 0,0 l/m 0 min 0 min 0,0 UV-I 0 W/m 0,0 km/h (0 Bft)
13.11.2013 22:52 2,8 C 1,1 C 98 % 1027,9 hPa 0,0 l/m 0 min 0 min 0,0 UV-I 0 W/m 0,0 km/h (0 Bft)
13.11.2013 22:54 2,7 C 1,1 C 98 % 1028,0 hPa 0,0 l/m 0 min 0 min 0,0 UV-I 0 W/m 0,0 km/h (0 Bft)
13.11.2013 22:56 2,7 C 1,1 C 98 % 1027,9 hPa 0,0 l/m 0 min 0 min 0,0 UV-I 0 W/m 0,0 km/h (0 Bft)
13.11.2013 22:58 2,7 C 1,1 C 98 % 1027,9 hPa 0,0 l/m 0 min 0 min 0,0 UV-I 0 W/m 0,0 km/h (0 Bft)
13.11.2013 23:00 2,7 C 1,1 C 98 % 1027,9 hPa 0,0 l/m 0 min 0 min 0,0 UV-I 0 W/m 0,0 km/h (0 Bft)
13.11.2013 23:02 2,6 C 1,1 C 98 % 1027,9 hPa 0,0 l/m 0 min 0 min 0,0 UV-I 0 W/m 0,0 km/h (0 Bft)
13.11.2013 23:04 2,6 C 1,1 C 98 % 1027,8 hPa 0,0 l/m 0 min 0 min 0,0 UV-I 0 W/m 0,0 km/h (0 Bft)
13.11.2013 23:06 2,6 C 1,1 C 98 % 1027,9 hPa 0,0 l/m 0 min 0 min 0,0 UV-I 0 W/m 0,0 km/h (0 Bft)
13.11.2013 23:08 2,6 C 1,1 C 98 % 1027,8 hPa 0,0 l/m 0 min 0 min 0,0 UV-I 0 W/m 0,0 km/h (0 Bft)
13.11.2013 23:10 2,6 C 1,1 C 98 % 1027,8 hPa 0,0 l/m 0 min 0 min 0,0 UV-I 0 W/m 0,0 km/h (0 Bft)
13.11.2013 23:12 2,5 C 1,1 C 98 % 1027,8 hPa 0,0 l/m 0 min 0 min 0,0 UV-I 0 W/m 0,0 km/h (0 Bft)
13.11.2013 23:14 2,4 C 1,1 C 98 % 1027,8 hPa 0,0 l/m 0 min 0 min 0,0 UV-I 0 W/m 0,0 km/h (0 Bft)
13.11.2013 23:16 2,4 C 1,1 C 98 % 1027,7 hPa 0,0 l/m 0 min 0 min 0,0 UV-I 0 W/m 0,0 km/h (0 Bft)
13.11.2013 23:18 2,4 C 1,1 C 98 % 1027,7 hPa 0,0 l/m 0 min 0 min 0,0 UV-I 0 W/m 0,0 km/h (0 Bft)
13.11.2013 23:20 2,4 C 0,6 C 98 % 1027,7 hPa 0,0 l/m 0 min 0 min 0,0 UV-I 0 W/m 0,0 km/h (0 Bft)
13.11.2013 23:22 2,3 C 0,6 C 98 % 1027,7 hPa 0,0 l/m 0 min 0 min 0,0 UV-I 0 W/m 0,0 km/h (0 Bft)
13.11.2013 23:24 2,3 C 0,6 C 98 % 1027,6 hPa 0,0 l/m 0 min 0 min 0,0 UV-I 0 W/m 0,0 km/h (0 Bft)
13.11.2013 23:26 2,4 C 0,6 C 98 % 1027,6 hPa 0,0 l/m 0 min 0 min 0,0 UV-I 0 W/m 0,0 km/h (0 Bft)
13.11.2013 23:28 2,3 C 0,6 C 98 % 1027,5 hPa 0,0 l/m 0 min 0 min 0,0 UV-I 0 W/m 0,0 km/h (0 Bft)
13.11.2013 23:30 2,4 C 0,6 C 98 % 1027,5 hPa 0,0 l/m 0 min 0 min 0,0 UV-I 0 W/m 0,0 km/h (0 Bft)
13.11.2013 23:32 2,4 C 0,6 C 98 % 1027,5 hPa 0,0 l/m 0 min 0 min 0,0 UV-I 0 W/m 0,0 km/h (0 Bft)
13.11.2013 23:34 2,4 C 1,1 C 98 % 1027,4 hPa 0,0 l/m 0 min 0 min 0,0 UV-I 0 W/m 0,0 km/h (0 Bft)
13.11.2013 23:36 2,4 C 1,1 C 98 % 1027,4 hPa 0,0 l/m 0 min 0 min 0,0 UV-I 0 W/m 0,0 km/h (0 Bft)
13.11.2013 23:38 2,3 C 0,6 C 98 % 1027,4 hPa 0,0 l/m 0 min 0 min 0,0 UV-I 0 W/m 0,0 km/h (0 Bft)
13.11.2013 23:40 2,3 C 0,6 C 98 % 1027,4 hPa 0,0 l/m 0 min 0 min 0,0 UV-I 0 W/m 0,0 km/h (0 Bft)
13.11.2013 23:42 2,3 C 0,6 C 98 % 1027,4 hPa 0,0 l/m 0 min 0 min 0,0 UV-I 0 W/m 0,0 km/h (0 Bft)
13.11.2013 23:44 2,3 C 0,6 C 98 % 1027,4 hPa 0,0 l/m 0 min 0 min 0,0 UV-I 0 W/m 0,0 km/h (0 Bft)
13.11.2013 23:46 2,3 C 0,6 C 98 % 1027,4 hPa 0,0 l/m 0 min 0 min 0,0 UV-I 0 W/m 0,0 km/h (0 Bft)
13.11.2013 23:48 2,2 C 0,6 C 98 % 1027,4 hPa 0,0 l/m 0 min 0 min 0,0 UV-I 0 W/m 0,0 km/h (0 Bft)
13.11.2013 23:50 2,2 C 0,6 C 98 % 1027,4 hPa 0,0 l/m 0 min 0 min 0,0 UV-I 0 W/m 0,0 km/h (0 Bft)
13.11.2013 23:52 2,1 C 0,6 C 98 % 1027,3 hPa 0,0 l/m 0 min 0 min 0,0 UV-I 0 W/m 0,0 km/h (0 Bft)
13.11.2013 23:54 2,0 C 0,6 C 98 % 1027,3 hPa 0,0 l/m 0 min 0 min 0,0 UV-I 0 W/m 2,6 km/h (1 Bft)
13.11.2013 23:56 2,0 C 0,6 C 98 % 1027,3 hPa 0,0 l/m 0 min 0 min 0,0 UV-I 0 W/m 0,0 km/h (0 Bft)
13.11.2013 23:58 2,0 C 1,1 C 98 % 1027,3 hPa 0,0 l/m 0 min 0 min 0,0 UV-I 0 W/m 0,0 km/h (0 Bft)
_ Min-Zeit 23:54 07:08 13:42 23:52 - - - - - 00:00
Minimum _ 2,0 C 0,6 C 76 % 1027,3 hPa - - - - - 0,0 km/h (0 Bft)
_ Max-Zeit 13:14 14:06 10:20 10:36 00:00 09:10 05:08 00:00 13:26 14:10
Maximum _ 10,4 C 8,3 C 99 % 1032,8 hPa 0,0 l/m 2 min 2 min 0,0 UV-I 338 W/m 12,9 km/h
N (3 Bft)
Durchschnitt _ 5,8 C 3,8 C 94 % 1030,4 hPa #0,0 l/m #5:46 h #2 min. 0,0 UV-I 179 W/m 0,5 km/h (0 Bft)
© 2013 W. Hausmann